GEFSSGP_500_meanwind_084.txt.gz
Wind_Speed
17 16 16 15 14 10 3 1 8 13 19 22 21 19 18 20 21 19 17 15 14 14 16 16 16 16 16 16 16 15 14 13 13 13 13 12 11 10 9 8 7 7 6 5 4 3 3 3 3
17 17 17 17 15 9 3 5 12 17 22 24 22 18 18 21 21 19 18 17 17 16 17 18 18 17 17 17 17 17 16 15 15 14 14 13 12 11 10 9 8 7 7 6 5 4 3 3 3
18 18 18 18 15 11 8 10 13 18 21 25 22 19 19 21 20 20 18 18 18 18 18 19 20 19 19 19 19 18 18 17 16 16 16 15 14 12 11 10 9 8 7 7 5 5 4 4 4
18 18 19 18 15 10 10 12 17 18 20 23 22 21 20 21 20 19 19 18 19 18 19 19 20 21 21 20 20 20 19 18 18 18 17 16 15 14 12 11 10 9 8 7 6 6 5 5 4
18 18 18 18 15 12 13 16 20 21 22 23 23 21 22 20 19 19 19 19 19 19 19 19 20 22 22 21 20 20 20 20 19 19 18 17 16 15 14 12 11 10 9 9 8 7 6 6 5
18 18 18 16 13 10 12 17 23 24 23 21 22 22 24 23 21 18 19 20 21 19 18 19 20 22 22 23 22 21 21 21 20 20 19 18 17 16 15 14 12 12 11 10 9 8 8 7 7
18 18 17 14 12 12 13 19 23 23 22 21 22 23 26 25 21 19 19 21 21 19 19 20 19 20 22 23 23 22 22 22 21 21 20 19 18 17 16 15 14 13 12 11 10 9 9 8 8
17 18 17 14 14 14 16 21 24 24 21 22 24 25 27 26 22 20 20 20 21 20 19 21 20 20 22 22 22 22 22 22 22 22 21 20 19 19 18 16 15 14 14 13 12 11 10 10 9
17 17 15 12 12 15 18 22 24 25 23 23 24 28 30 28 24 21 20 20 21 21 20 22 22 21 23 24 23 23 22 22 22 22 21 21 20 20 19 18 17 16 15 14 13 13 12 11 10
16 16 14 13 18 22 22 22 23 23 23 23 25 27 30 29 28 26 24 23 23 22 21 21 22 23 23 23 24 24 24 23 22 23 22 21 21 21 20 20 19 17 17 16 15 14 13 13 12
17 17 17 18 24 27 26 24 24 24 25 24 24 27 30 29 28 24 23 25 24 23 23 22 22 23 24 23 24 25 25 24 23 23 23 23 22 22 22 21 20 19 18 17 16 16 15 15 14
17 18 20 22 25 26 25 26 25 25 26 26 26 27 29 30 28 26 26 27 26 26 25 24 23 24 24 23 24 26 27 25 25 24 24 24 23 22 22 23 22 20 19 19 18 18 17 17 16
18 20 21 23 25 25 25 25 26 27 27 28 28 28 30 31 30 28 28 29 28 28 26 24 23 23 23 23 24 25 27 27 27 26 25 25 24 24 23 23 22 20 19 19 19 19 19 19 18
18 20 21 22 23 24 25 25 26 26 28 29 29 30 31 32 32 32 32 30 29 29 24 24 23 22 22 23 24 25 26 27 26 26 26 26 26 25 23 24 23 21 20 20 20 20 20 20 19
18 19 20 20 21 22 24 24 24 24 26 28 29 29 31 32 32 33 31 33 33 32 27 26 26 23 23 23 24 24 25 26 26 26 26 27 26 25 25 25 24 22 22 22 22 22 21 22 21
15 16 15 16 20 21 22 22 20 22 24 27 27 28 30 32 34 35 35 34 34 33 30 29 28 25 24 25 24 24 24 24 25 26 27 27 25 25 26 26 25 24 24 23 23 23 22 23 23
11 12 11 12 18 22 22 21 19 21 24 27 28 27 29 31 33 34 35 36 36 33 30 28 29 27 27 27 25 26 26 25 25 25 26 26 26 25 25 26 27 27 25 24 24 24 24 24 24
8 12 13 15 18 21 22 21 19 21 24 26 27 27 28 30 31 33 35 36 37 35 33 31 31 30 29 28 27 27 27 26 25 25 26 26 26 25 25 26 26 26 25 25 26 26 25 26 26
16 17 18 16 17 22 22 22 21 22 25 26 26 27 27 29 31 33 36 37 37 36 36 35 34 32 31 29 28 28 28 27 27 27 27 25 25 25 25 25 25 26 27 27 28 27 27 28 27
15 15 16 16 18 22 23 22 20 22 25 25 26 26 29 30 31 33 36 37 35 36 37 36 36 34 33 31 30 29 30 27 26 27 26 25 24 24 25 26 27 27 29 29 29 28 28 28 28
13 14 16 18 19 21 23 23 21 21 25 26 26 27 27 31 33 35 35 34 35 37 36 36 37 37 35 33 32 30 28 28 27 25 23 23 24 25 25 26 26 28 29 30 31 30 30 30 29
14 15 18 19 20 20 19 24 22 24 25 25 26 25 27 30 33 33 33 33 35 35 37 38 38 38 37 36 33 28 26 26 26 23 22 23 24 26 26 27 27 28 29 29 30 31 32 31 30
15 16 18 18 19 20 19 24 25 25 24 26 26 25 27 28 30 31 31 33 35 36 37 38 39 38 37 36 35 31 28 26 26 24 23 24 23 24 25 26 27 28 29 29 29 30 31 31 31
15 15 15 15 17 20 19 22 23 25 24 24 24 21 23 24 27 29 30 33 34 34 36 38 39 38 37 36 35 32 30 27 25 22 22 22 23 24 25 26 27 28 29 30 30 30 30 30 31
14 15 16 17 19 22 21 22 24 24 23 22 21 21 21 23 27 29 30 31 33 34 36 38 38 37 37 36 36 33 31 29 26 23 23 23 23 24 24 26 27 28 29 30 30 31 31 32 32
15 15 17 19 20 21 23 23 21 20 19 19 20 21 21 22 25 27 29 29 31 33 35 36 37 38 37 37 35 33 31 30 27 25 24 23 24 23 23 24 26 27 28 29 30 30 29 30 31
14 14 15 19 19 21 22 21 20 20 20 19 20 21 21 21 23 24 26 28 30 31 33 35 36 36 36 36 34 33 30 29 27 26 25 24 24 23 23 23 23 24 25 25 25 25 26 26 27
14 14 15 16 19 20 20 21 21 20 17 17 19 19 20 19 21 22 25 27 28 28 30 32 33 35 35 34 33 32 30 29 28 27 26 26 25 25 25 25 23 22 22 22 22 23 25 26 26
14 13 15 16 16 20 21 23 22 20 18 17 17 17 18 18 18 19 21 23 25 25 27 29 31 33 33 33 33 31 29 29 27 27 25 25 25 25 26 25 24 23 23 23 23 24 25 26 27
14 13 14 16 16 19 22 25 23 22 18 16 17 17 19 20 19 18 19 20 21 23 25 26 27 29 30 31 31 30 29 29 28 27 26 24 23 24 24 24 25 25 26 26 27 27 28 29 29

GEFSSGP_500_meanwind_090.txt.gz
Wind_Speed
20 19 18 16 13 12 14 14 14 13 10 10 13 15 16 16 16 16 14 12 12 11 10 10 9 10 11 11 12 13 14 14 14 13 12 11 11 11 11 11 11 10 10 9 8 7 6 5 4
20 19 19 17 14 14 16 16 15 13 10 12 16 18 17 16 17 16 14 14 13 12 12 12 12 12 12 13 14 14 15 15 15 14 13 13 12 12 12 12 12 11 10 10 9 8 7 5 4
21 20 19 17 14 16 17 18 17 13 11 14 19 21 20 18 18 16 14 14 13 13 13 13 13 13 13 14 15 16 16 16 16 16 15 14 14 13 13 13 13 12 11 10 10 9 8 6 5
21 20 19 16 15 18 19 17 16 14 12 14 19 21 21 20 19 16 15 14 14 14 14 14 14 14 15 15 16 17 17 17 17 17 17 16 16 15 14 14 13 13 12 11 10 10 9 7 6
21 21 19 16 16 19 19 17 15 14 13 17 20 22 23 22 19 16 14 15 15 15 15 15 15 15 15 16 17 18 19 19 19 18 18 17 17 17 16 15 15 14 13 12 11 11 10 8 7
21 20 18 16 18 20 20 18 17 15 15 20 23 25 25 22 20 17 15 15 16 15 15 16 15 15 16 16 17 19 19 20 20 20 19 19 18 18 17 17 16 15 14 13 12 12 11 10 8
21 19 18 18 20 22 22 20 17 16 18 22 25 28 27 25 22 19 17 15 15 15 16 17 16 16 16 16 17 18 19 20 21 21 21 20 20 20 19 18 17 16 15 14 13 13 12 11 9
20 19 17 18 21 24 24 19 17 17 19 23 27 29 28 27 24 22 18 15 15 16 17 17 18 17 17 18 18 18 19 21 22 22 22 22 21 21 20 19 18 17 16 15 14 13 13 12 11
19 17 17 19 24 26 25 22 20 21 22 25 27 29 29 29 27 24 21 19 17 17 17 18 19 19 19 20 20 20 19 20 21 22 23 22 22 21 20 19 19 18 17 16 15 14 14 13 12
18 16 17 22 26 26 25 23 22 23 25 26 27 29 30 30 29 26 22 20 19 19 20 20 20 21 22 21 21 21 21 21 22 23 23 23 22 22 21 20 19 18 18 17 16 15 15 14 14
18 17 19 23 24 24 22 21 22 24 26 28 29 29 31 30 29 28 25 22 21 21 22 23 23 23 23 22 22 22 22 23 23 24 24 24 24 23 22 21 21 20 19 18 17 17 16 16 15
18 19 21 23 23 23 22 21 22 25 28 29 31 31 31 30 30 28 27 25 23 22 23 25 25 25 24 24 23 23 24 24 24 25 25 25 25 24 24 23 22 21 20 20 19 19 18 17 16
19 20 22 23 22 22 22 21 24 26 28 30 32 32 33 32 30 30 29 28 25 24 24 26 26 26 26 25 25 24 24 25 25 25 24 25 26 25 24 23 23 22 22 21 20 20 20 18 17
19 20 21 22 21 20 20 21 23 25 28 30 31 32 32 32 32 31 31 30 28 25 24 25 26 26 26 26 25 25 25 26 26 27 26 26 27 26 26 25 24 24 23 23 22 21 20 19 19
17 16 16 16 17 17 19 19 20 21 24 26 29 30 31 32 33 32 32 32 30 29 28 26 27 27 27 26 26 26 26 27 26 26 27 27 27 27 27 27 26 24 24 24 23 21 21 21 21
14 13 13 13 15 15 17 16 17 18 20 23 25 27 29 30 32 33 33 34 32 31 30 29 28 28 28 27 27 28 28 29 27 27 27 27 27 27 28 28 27 25 24 24 24 23 22 21 20
13 13 13 13 13 14 17 16 16 17 19 21 23 25 27 29 30 31 32 32 32 32 31 30 29 28 28 29 29 27 29 28 28 27 27 27 26 27 27 27 27 27 26 24 24 24 22 22 21
14 14 14 13 13 14 15 15 15 16 19 21 23 24 26 28 29 30 31 31 31 32 31 31 30 28 28 30 32 31 28 27 26 26 26 27 27 27 27 27 26 26 25 25 23 23 22 23 23
15 15 14 12 12 14 15 16 17 19 21 23 24 25 26 27 29 29 29 30 30 31 31 30 31 31 31 31 32 32 29 28 28 27 27 27 25 26 25 25 26 24 23 23 23 22 23 24 23
15 15 13 13 14 16 17 19 21 23 24 25 25 26 27 28 28 29 30 30 30 31 31 31 32 32 32 32 32 32 30 29 28 29 27 26 25 23 23 24 23 23 22 21 22 22 22 23 24
14 13 14 15 17 18 21 23 24 25 25 25 25 25 28 29 29 29 29 30 31 31 31 32 32 33 31 30 30 31 32 31 30 28 27 25 25 24 22 20 21 21 21 21 22 23 23 24 25
13 12 14 15 17 19 21 24 24 26 25 26 26 26 27 27 28 29 29 29 30 31 31 31 31 32 31 30 30 30 30 31 30 27 27 26 23 21 21 21 22 21 22 22 23 23 24 24 25
13 13 14 15 17 18 20 23 22 23 24 25 26 26 26 27 29 29 29 30 30 31 30 30 31 31 31 30 30 31 30 29 30 29 28 27 25 22 21 22 22 22 22 23 23 23 24 25 26
13 14 15 16 17 19 19 21 21 22 23 25 26 26 27 28 29 30 30 30 28 29 29 30 29 29 30 31 30 30 31 29 28 28 29 28 26 24 22 21 20 21 21 21 22 23 25 26 27
13 14 15 15 15 17 18 20 20 21 22 23 23 24 26 26 26 27 29 29 27 27 28 28 28 28 28 28 28 29 29 29 29 28 27 26 24 23 23 21 19 20 20 21 22 23 25 25 26
11 13 14 16 16 17 18 19 19 20 19 20 21 23 24 24 25 25 25 25 24 25 25 25 26 26 25 25 27 28 27 26 26 27 26 24 22 21 21 22 21 21 20 21 22 22 23 24 26
13 14 15 16 17 17 17 18 18 19 20 20 20 20 22 22 23 22 21 21 20 21 22 22 24 24 24 24 25 26 25 25 24 26 26 24 22 20 20 21 21 20 20 20 21 22 22 23 24
15 16 16 17 18 18 17 17 18 19 19 19 19 19 19 20 20 19 19 19 19 20 21 21 22 22 23 23 23 23 23 23 22 23 24 24 22 21 21 21 21 20 20 20 19 19 20 21 22
16 16 17 17 18 18 18 18 18 19 19 20 19 18 18 17 17 17 18 19 19 19 21 20 19 20 21 22 22 22 22 22 23 22 22 22 22 22 22 21 20 19 20 20 19 18 18 19 20
16 16 16 17 17 17 18 19 19 19 20 20 19 18 18 17 18 18 19 19 20 19 19 19 18 17 18 19 21 23 22 22 21 22 21 20 20 22 22 21 20 20 20 20 20 19 19 20 20

GEFSSGP_500_meanwind_096.txt.gz
Wind_Speed
23 21 20 19 18 16 16 17 18 19 19 17 14 11 9 8 7 7 6 5 4 5 5 6 7 8 8 8 7 7 6 6 6 5 5 5 5 5 5 6 7 8 9 9 9 9 9 8 7
24 23 22 20 18 16 17 20 22 22 21 18 15 12 8 7 8 7 7 6 6 6 6 7 8 9 10 9 9 8 8 8 7 7 7 7 6 6 6 6 7 7 8 8 9 9 9 7 6
25 24 23 20 17 17 20 23 24 24 22 20 17 14 10 8 8 8 8 8 8 8 7 8 9 10 10 10 10 10 9 9 9 9 9 9 8 8 8 8 7 8 8 8 8 9 8 7 6
26 24 23 20 17 20 23 25 25 25 24 22 19 15 12 10 9 9 8 8 8 8 9 9 10 11 11 11 10 11 11 11 11 11 11 10 10 10 9 9 9 8 9 8 8 9 8 8 7
26 24 22 19 19 22 26 27 27 26 25 23 20 17 14 12 11 10 9 8 9 9 10 10 11 12 12 12 12 12 12 12 13 13 12 12 11 11 11 11 10 10 10 9 9 9 8 8 8
25 23 21 20 22 25 28 29 29 28 26 24 21 18 16 14 13 12 11 10 10 10 10 11 12 13 14 14 13 13 14 14 14 14 14 13 13 13 13 13 12 11 11 10 10 9 9 9 8
24 23 21 21 24 28 30 30 30 29 26 24 21 18 16 15 15 14 13 12 12 12 12 12 13 14 15 14 14 14 15 15 15 16 16 15 15 14 14 14 14 13 12 12 11 10 10 10 9
23 22 21 22 26 29 31 32 31 30 27 25 23 19 17 17 17 16 15 15 14 14 14 14 15 16 16 16 16 16 16 16 17 17 17 17 17 16 16 16 15 14 14 13 12 11 11 11 10
22 21 21 24 28 30 32 32 32 31 28 26 24 22 20 19 18 18 18 17 16 16 16 16 17 17 18 18 18 18 18 18 18 18 18 18 18 17 17 17 16 16 15 15 14 13 13 12 11
20 20 21 25 29 31 32 31 31 31 29 27 26 24 22 21 20 19 19 18 17 16 16 16 17 19 18 19 19 20 20 20 20 20 19 20 19 19 18 18 18 17 17 16 16 15 15 13 12
19 20 23 26 29 31 31 31 31 31 30 29 27 25 24 23 23 22 22 21 19 18 18 18 18 20 20 20 20 21 21 22 22 22 22 21 21 20 20 20 19 19 18 18 18 17 16 15 14
20 21 23 26 29 30 30 30 30 30 30 29 29 28 26 25 25 24 24 23 22 21 21 21 21 21 22 23 22 23 23 24 24 24 23 23 23 22 23 22 21 21 20 20 19 19 18 16 16
19 21 22 24 27 28 29 28 29 29 30 30 30 29 27 26 27 26 26 26 24 24 24 23 24 24 24 23 23 24 26 26 26 26 25 24 24 24 23 24 23 22 22 22 21 20 19 18 17
17 18 20 22 25 27 28 28 28 29 29 30 30 29 29 28 29 29 29 28 26 25 25 25 25 24 25 25 25 27 27 27 27 27 26 24 25 25 25 24 25 24 24 24 23 21 20 20 20
15 16 19 22 25 27 28 27 28 29 29 30 30 30 30 30 30 30 30 29 27 26 26 26 26 26 26 26 26 27 27 27 27 27 27 27 26 26 26 27 26 26 25 25 25 24 22 20 21
14 16 18 21 24 26 26 26 28 29 29 29 29 29 29 30 30 30 29 28 28 28 27 28 27 27 28 27 28 28 27 28 29 29 29 29 29 29 28 29 28 27 27 26 26 25 24 23 22
15 16 18 20 23 25 25 26 28 28 28 28 28 28 28 29 29 29 28 28 28 28 28 28 30 29 28 28 29 29 29 30 30 31 31 31 30 30 31 31 30 28 27 27 26 26 26 25 24
16 17 17 19 21 23 24 24 26 26 25 25 25 26 27 27 28 28 28 28 28 28 29 29 29 29 29 30 30 29 30 31 32 32 32 32 32 31 31 31 31 30 29 28 27 26 26 27 25
18 17 17 19 21 22 22 22 23 23 23 24 23 24 24 25 26 27 27 28 28 28 29 29 28 29 29 29 29 30 30 31 32 33 33 32 32 32 30 30 30 30 30 30 28 26 27 27 27
18 18 18 19 20 21 21 21 21 21 22 22 23 23 23 24 24 26 27 27 28 28 28 28 28 28 29 29 30 30 30 31 32 33 32 31 31 31 29 29 30 31 30 29 29 28 28 26 26
18 17 18 19 21 22 22 21 21 22 22 23 23 23 23 24 25 26 27 27 27 27 27 28 27 27 28 29 29 29 30 31 31 32 32 32 31 31 31 27 27 29 28 28 27 27 28 28 27
17 17 18 19 20 21 22 22 21 22 23 24 24 25 25 25 26 27 27 27 27 26 27 27 27 27 27 27 28 28 29 30 30 30 29 30 31 31 30 29 27 27 28 28 27 26 28 28 27
16 17 17 18 19 20 20 21 19 21 22 23 25 25 25 25 26 26 27 27 27 27 27 27 27 27 27 27 27 27 27 28 29 29 29 28 28 28 28 26 26 27 27 29 28 27 28 29 29
16 16 17 17 17 18 19 20 19 20 21 21 22 23 24 25 25 25 26 27 27 27 27 27 27 27 27 27 26 26 25 25 26 28 29 29 27 26 27 27 27 27 27 26 27 26 27 28 28
15 16 17 17 16 17 17 18 18 18 19 19 20 21 22 24 24 24 25 26 26 26 26 27 27 27 27 26 26 25 24 24 24 25 27 27 25 25 26 25 25 26 26 25 25 26 26 27 27
15 15 16 17 17 16 17 17 17 17 18 19 20 21 21 21 22 23 24 26 25 25 25 25 25 24 25 25 25 24 23 23 23 24 25 25 24 23 23 22 22 23 24 24 24 25 25 25 26
15 15 15 16 16 16 15 15 16 17 18 19 20 19 19 20 21 22 23 24 24 25 25 23 23 23 22 24 25 24 23 22 22 23 23 23 23 22 21 21 22 22 22 23 23 24 24 25 25
15 15 15 16 17 16 15 15 15 16 18 18 19 19 19 20 20 21 22 22 23 24 23 23 22 22 22 23 24 24 22 21 22 22 23 23 23 22 22 22 22 22 23 23 23 23 24 25 26
15 15 15 16 17 17 17 15 16 17 18 18 18 19 19 20 20 21 21 21 22 21 22 22 22 22 22 22 22 23 22 21 21 22 23 22 21 22 23 23 22 22 23 23 24 24 24 24 25
15 15 16 17 17 17 18 16 16 18 19 19 20 20 20 20 20 21 22 22 22 22 22 22 22 22 21 21 21 20 21 21 20 20 22 22 22 23 23 24 24 23 23 23 24 24 24 24 24

GEFSSGP_500_meanwind_102.txt.gz
Wind_Speed
21 20 19 18 18 17 18 21 21 19 18 15 13 12 12 11 10 9 7 6 6 7 8 8 9 9 8 8 8 8 9 8 8 7 7 6 5 4 2 1 1 1 2 3 3 3 3 3 3
22 21 20 20 18 17 20 23 22 22 19 16 14 13 13 12 12 11 9 7 7 7 7 8 9 9 9 9 9 9 9 10 9 9 8 7 6 5 3 2 2 1 0 1 1 2 2 2 2
23 22 21 20 19 19 23 25 24 22 19 17 16 15 14 14 14 12 10 8 8 7 7 8 9 10 10 10 10 10 10 11 11 10 10 9 8 7 5 4 3 3 2 2 1 1 1 1 1
23 23 22 21 21 23 26 25 25 23 20 19 17 16 16 15 14 13 11 9 8 8 9 9 10 10 11 11 11 11 11 11 11 11 11 10 10 8 7 6 5 5 5 4 4 3 3 2 2
23 22 22 21 22 24 26 26 25 24 22 20 18 17 17 16 15 13 11 9 8 9 9 10 10 11 11 11 11 12 12 13 13 13 13 12 11 10 10 9 8 7 7 7 6 6 5 4 3
22 21 21 21 23 25 26 27 26 24 23 21 19 19 18 17 15 14 13 11 10 10 10 10 10 11 12 12 12 13 13 13 14 14 14 14 13 13 12 12 10 10 9 9 9 8 7 6 5
21 21 21 21 23 25 27 27 27 26 24 23 21 20 19 18 16 14 13 12 11 11 11 11 11 12 12 13 13 14 14 14 15 15 16 16 16 15 15 14 13 12 11 11 10 10 9 8 7
20 20 20 22 23 26 27 27 27 26 26 23 22 22 20 19 18 16 14 13 12 12 12 12 12 12 13 14 15 15 15 16 16 16 17 17 18 17 17 16 15 14 14 13 12 12 11 10 9
19 19 20 22 24 26 26 27 27 27 25 24 23 22 21 20 19 17 15 15 13 12 12 13 13 14 14 15 16 16 16 16 17 17 18 19 19 19 18 17 16 15 15 14 14 14 13 12 11
18 19 21 22 24 26 26 27 27 26 26 25 24 24 22 21 20 18 17 17 15 13 13 13 14 15 16 16 17 17 17 17 18 18 18 19 20 20 19 18 18 17 16 16 15 15 15 15 13
18 19 21 22 24 25 26 27 27 26 26 26 25 23 22 21 21 20 19 18 17 16 15 15 15 16 17 18 19 19 19 20 20 20 20 20 21 21 20 20 19 19 18 17 17 17 17 17 16
18 19 20 21 23 24 26 26 27 27 27 26 24 22 22 22 23 22 21 20 19 18 17 18 18 18 19 19 20 21 20 21 21 21 21 21 22 23 22 21 21 20 20 19 19 18 18 18 19
17 18 18 20 21 23 25 26 27 27 26 25 24 23 23 24 23 23 24 22 21 20 20 20 20 21 21 21 22 22 22 22 22 23 23 23 24 24 23 24 23 22 22 22 21 20 20 19 20
16 17 18 19 20 22 24 25 26 27 26 25 24 24 24 24 25 25 24 23 23 22 22 22 23 23 22 23 23 24 24 23 23 24 24 25 25 26 25 24 24 24 24 24 24 23 22 22 21
16 16 17 19 19 21 22 24 26 26 25 24 24 24 24 24 25 25 25 25 25 25 25 24 24 25 25 25 25 25 25 26 25 26 26 26 26 27 28 27 26 27 26 25 25 25 24 24 23
16 16 17 19 19 20 19 22 24 25 24 24 24 24 25 25 25 25 26 26 26 26 26 26 26 26 27 27 27 26 27 28 28 28 28 27 27 27 28 29 29 29 29 27 26 27 26 25 25
15 15 16 18 19 19 19 22 22 23 23 24 24 25 26 26 26 26 26 27 27 27 27 27 27 28 28 28 28 28 29 29 31 31 31 30 29 29 28 29 29 30 30 30 28 28 28 27 27
15 15 16 17 18 18 19 21 21 22 22 23 24 24 25 25 25 26 26 27 27 27 28 28 28 29 28 28 28 28 29 29 31 32 32 32 31 30 30 30 29 29 30 30 29 29 29 28 28
15 15 15 17 16 16 17 18 19 20 20 21 22 23 23 24 25 25 25 26 26 27 27 28 28 28 28 28 28 28 28 30 31 32 32 33 32 33 32 32 31 31 30 29 29 28 29 29 28
14 14 14 15 15 15 16 17 17 19 20 20 21 22 22 23 23 24 25 25 26 26 27 28 28 28 27 27 28 29 29 30 31 32 32 32 33 33 33 33 32 32 32 31 30 29 29 29 28
13 13 14 14 14 14 14 15 17 18 19 20 21 21 21 22 22 23 25 26 27 27 27 28 28 29 28 27 28 28 29 30 30 31 32 32 33 33 32 32 32 32 31 31 30 29 30 31 30
12 13 13 13 11 12 12 11 16 17 18 19 20 21 21 22 23 24 24 25 26 27 27 27 27 27 27 27 28 28 29 30 30 31 32 32 33 33 33 33 32 32 31 31 31 30 30 31 31
13 13 12 12 12 12 13 11 13 16 17 18 19 19 20 21 22 22 23 24 25 26 27 27 28 28 28 28 29 29 29 30 31 31 32 33 33 33 33 33 34 33 32 31 32 32 31 30 31
12 11 11 11 11 11 13 12 12 15 16 17 17 18 19 20 21 22 22 23 24 25 26 27 28 28 29 30 30 30 30 30 30 31 31 31 32 32 33 32 32 32 30 29 30 30 30 31 30
11 9 8 9 10 11 13 12 13 15 15 16 17 18 19 20 21 22 23 23 24 25 26 26 27 28 29 30 30 31 32 32 31 31 31 30 30 30 30 31 31 31 31 31 30 29 29 30 30
10 10 9 10 10 11 14 13 14 14 15 16 17 18 19 20 21 22 22 23 24 25 25 25 26 27 28 29 30 31 31 31 31 31 30 30 30 30 29 29 29 29 30 30 30 30 30 30 30
10 10 11 10 10 11 13 14 15 15 15 16 17 18 19 20 22 22 22 23 23 24 25 26 27 28 29 29 29 30 30 30 31 30 30 30 29 29 30 29 28 28 27 28 29 29 28 28 30
11 11 11 10 10 10 11 13 14 15 16 17 18 20 21 21 22 23 23 24 25 25 26 27 27 27 28 28 29 29 29 29 29 28 29 29 29 29 28 28 28 28 28 26 27 28 28 28 29
11 12 11 11 12 11 11 13 16 17 18 18 20 21 22 22 23 23 24 25 26 26 26 26 26 26 25 25 26 27 28 27 27 26 27 28 27 27 27 27 28 27 26 26 26 26 27 29 29
12 12 12 12 13 13 13 16 17 18 19 20 21 22 23 23 24 25 25 26 25 25 25 25 25 25 25 24 25 25 26 26 25 25 25 26 26 25 25 26 26 26 25 25 25 26 25 26 27

GEFSSGP_500_meanwind_108.txt.gz
Wind_Speed
17 17 17 17 15 13 9 6 9 17 20 22 19 18 18 18 15 14 12 12 11 11 10 10 9 10 10 10 10 10 10 9 9 9 8 8 8 8 7 6 5 4 3 2 2 1 0 1 1
18 18 18 17 15 11 5 6 14 20 22 19 17 17 19 18 18 17 14 12 12 11 11 11 11 11 11 11 11 11 11 10 10 9 9 9 9 8 8 7 7 6 5 4 3 3 2 2 1
18 19 18 17 14 9 6 12 20 24 24 19 16 17 20 19 19 17 16 15 13 12 12 12 12 12 12 12 11 12 12 11 11 11 10 10 10 10 10 9 8 7 7 6 5 5 4 3 3
18 18 18 17 14 10 11 17 22 23 22 18 17 19 21 20 20 18 17 17 15 15 13 13 13 13 13 13 12 12 12 12 12 12 12 12 12 12 11 11 10 9 8 7 7 7 6 5 4
17 17 17 16 13 13 17 22 23 21 19 18 18 20 22 22 22 20 18 17 17 16 16 15 14 14 14 14 14 13 13 13 13 13 13 14 14 14 13 12 12 11 10 9 9 9 8 8 7
16 16 15 13 11 15 20 25 25 23 19 18 19 21 23 22 18 18 18 17 17 16 15 15 15 15 15 15 16 16 15 15 15 15 15 15 15 15 15 14 14 13 12 11 11 11 10 9 9
16 15 14 11 10 16 21 25 23 19 16 17 19 22 24 23 19 16 17 17 17 16 16 16 16 16 16 16 16 17 17 17 16 16 16 17 17 16 16 16 15 15 14 14 13 12 11 11 11
15 16 15 12 13 18 23 25 22 19 17 18 19 23 25 24 18 15 16 16 16 16 16 16 16 16 17 17 17 17 17 17 17 18 18 18 18 18 18 18 17 17 16 16 15 14 14 13 13
15 15 14 11 13 17 22 23 20 18 20 21 22 25 26 20 18 16 16 16 17 17 16 16 17 17 17 17 18 18 18 18 18 19 19 19 19 19 19 19 19 19 18 18 17 16 16 15 14
14 14 11 12 15 18 20 21 17 17 20 22 23 25 25 22 19 17 18 18 18 17 16 17 17 17 17 17 18 18 19 19 19 19 20 20 20 20 20 21 21 21 20 20 19 18 17 17 16
15 15 14 18 21 22 20 18 17 17 16 18 22 25 25 23 20 17 18 18 20 19 17 17 16 16 16 17 17 18 19 20 20 20 21 21 21 21 21 21 21 21 21 21 20 20 19 18 18
17 18 19 20 23 23 21 20 19 18 16 20 24 25 23 20 17 18 19 21 23 22 18 18 17 17 17 17 18 18 19 20 21 22 22 22 22 22 22 22 21 22 22 22 21 21 20 20 20
18 19 20 21 21 21 21 21 20 18 20 22 23 22 22 19 19 21 23 24 24 22 18 17 18 17 18 18 18 19 19 20 21 21 22 22 23 23 23 23 22 23 23 23 23 22 23 22 21
17 18 19 20 19 19 19 20 19 19 21 23 23 23 21 20 20 21 24 25 25 22 18 17 17 17 19 19 19 20 21 21 22 23 24 24 25 24 23 23 23 23 23 23 23 23 24 24 23
16 17 16 16 16 16 16 17 18 17 20 20 21 22 22 23 25 25 25 25 23 18 17 17 18 19 20 20 20 21 22 23 23 25 25 26 26 25 24 24 24 25 24 24 23 23 24 24 24
14 14 13 13 14 14 14 15 16 17 18 19 20 22 23 23 25 25 25 23 22 21 18 18 19 20 21 21 21 22 23 24 25 26 27 27 27 25 25 25 26 26 26 25 25 24 25 25 25
11 11 10 12 13 13 12 14 17 18 16 18 20 21 21 22 24 25 24 23 22 21 20 21 22 21 22 23 24 24 25 25 26 28 28 28 27 27 27 27 27 27 27 27 28 27 26 26 26
7 7 9 14 14 12 11 13 19 20 17 17 19 21 22 22 23 24 24 23 23 22 23 23 24 23 24 25 25 25 26 27 27 28 28 29 28 28 29 29 28 28 28 28 30 30 29 29 28
10 11 13 15 15 12 12 15 19 18 16 17 19 20 22 22 20 22 23 22 23 24 24 25 25 26 26 26 26 26 27 28 28 28 29 30 30 31 30 30 30 29 29 29 30 31 31 30 29
15 15 15 15 16 13 12 16 19 17 17 17 19 20 21 22 21 22 23 23 24 24 25 26 26 27 27 27 27 27 27 28 29 29 30 30 31 31 31 31 30 30 31 31 31 31 31 31 31
15 15 15 17 17 15 14 17 19 19 18 18 19 21 21 22 22 22 23 23 24 25 26 27 27 28 28 28 28 28 29 29 30 30 31 31 31 31 31 31 31 31 32 31 31 30 31 31 31
14 15 14 15 14 13 14 16 20 22 20 19 18 20 21 22 22 22 23 24 25 26 27 27 28 28 29 30 31 31 31 31 32 32 31 31 31 31 31 31 31 31 32 32 32 33 32 32 32
13 14 15 15 15 15 15 16 20 21 21 19 16 18 20 20 21 22 23 24 25 26 26 27 27 28 28 29 30 31 31 31 32 32 32 32 32 31 31 32 32 32 33 33 34 34 33 33 33
11 12 13 15 16 16 17 17 19 22 20 18 15 16 19 20 21 22 23 24 25 26 27 27 27 27 28 28 29 30 30 31 32 32 32 32 31 31 31 31 31 32 32 33 33 33 33 34 34
13 13 12 14 14 15 16 17 20 21 19 18 15 17 20 21 22 23 24 25 26 27 27 27 28 28 29 29 30 30 30 31 32 32 32 31 31 31 30 31 31 31 32 32 32 32 32 33 33
11 11 12 13 13 13 14 17 20 20 18 18 19 21 21 23 23 24 24 25 26 26 27 27 28 28 29 29 30 30 31 31 31 31 31 31 31 31 31 31 31 32 32 31 31 32 32 32 32
10 10 12 13 12 14 13 15 18 18 18 17 19 20 21 23 23 23 24 25 26 26 26 27 27 28 28 28 29 30 31 31 31 31 30 30 31 31 31 31 31 31 31 31 31 31 31 31 31
12 12 13 12 12 12 11 14 18 18 19 18 18 20 22 24 23 24 25 26 27 27 27 28 28 28 28 29 30 30 30 30 30 30 30 30 30 30 30 30 30 30 30 30 30 29 30 30 30
11 13 14 13 14 14 15 15 19 17 18 17 20 22 23 24 25 26 27 28 28 29 29 29 29 29 29 29 29 29 29 29 29 29 29 29 29 29 29 29 28 28 27 27 27 28 27 27 27
13 13 14 14 15 17 20 20 18 18 19 19 21 22 24 25 26 27 28 28 29 29 29 30 30 29 30 29 29 29 28 28 29 29 29 28 28 28 28 27 26 25 25 24 24 24 25 26 25

GEFSSGP_500_meanwind_114.txt.gz
Wind_Speed
16 15 14 12 11 12 13 13 15 16 15 14 14 15 17 18 17 15 13 11 10 9 8 8 8 8 8 9 9 10 9 8 8 8 8 8 8 8 8 8 7 7 7 7 7 7 6 5 4
15 15 14 12 12 14 15 16 17 17 16 15 17 18 19 19 19 18 16 14 13 11 10 10 9 9 9 10 10 11 10 10 10 10 9 9 9 9 8 8 8 8 8 8 8 8 7 6 5
15 15 14 13 14 17 18 19 18 16 16 17 19 20 19 19 19 19 19 16 14 13 11 11 10 10 11 11 11 12 12 11 11 11 10 10 10 9 9 9 9 9 9 9 9 9 8 7 7
14 15 14 14 16 18 20 21 19 15 17 20 22 22 21 20 20 19 18 18 16 14 13 12 12 12 12 12 13 13 13 12 12 12 12 11 11 11 11 11 11 11 10 10 10 10 9 8 8
14 14 13 14 18 19 20 21 19 17 18 21 23 24 23 21 19 18 18 18 18 17 15 14 14 14 14 14 14 14 14 14 13 13 13 13 13 13 13 13 12 12 12 12 11 11 10 9 9
14 14 14 16 19 20 21 20 19 18 20 23 24 25 25 21 18 19 19 18 18 18 17 16 15 15 15 15 15 15 15 15 15 15 15 14 14 14 14 14 14 13 13 13 13 12 11 10 10
14 14 14 17 19 20 21 20 19 19 21 25 25 25 26 24 21 20 20 21 20 19 19 18 16 15 15 15 16 16 16 16 16 16 16 16 15 15 15 15 15 15 15 15 14 14 13 13 12
14 13 14 17 21 23 21 18 17 19 22 26 26 26 26 24 23 22 20 17 18 17 18 19 18 16 15 15 15 16 16 17 17 17 17 17 17 17 16 16 16 16 16 16 15 16 15 15 14
14 13 15 20 25 24 22 18 17 20 23 25 27 27 26 26 23 21 19 19 18 17 18 18 18 17 16 16 16 16 17 17 17 18 18 18 17 17 17 17 17 17 17 17 17 17 17 17 17
13 14 18 23 26 24 21 18 19 21 22 24 25 26 25 25 22 21 18 18 20 19 19 17 17 17 16 16 16 17 17 17 18 19 19 18 18 17 18 18 19 19 18 18 19 19 19 19 18
16 18 21 25 25 23 20 19 20 21 22 23 24 25 24 24 22 21 20 19 21 22 21 19 17 17 17 16 17 17 17 18 19 19 19 19 19 18 19 19 19 19 19 19 19 20 20 19 19
19 21 24 26 24 22 21 20 21 22 22 23 24 23 23 22 20 20 19 21 23 22 21 19 17 18 18 17 17 18 18 18 18 19 19 19 19 19 19 20 20 19 19 20 20 19 20 20 20
22 23 25 26 24 22 21 21 21 23 22 22 21 21 22 22 21 22 22 23 24 22 20 17 18 19 18 17 17 17 18 18 18 19 19 20 20 20 20 20 20 20 20 21 21 20 20 19 20
23 24 26 26 24 22 21 21 22 23 22 23 22 21 21 21 22 22 21 23 24 21 18 16 16 17 18 18 18 18 18 18 19 19 19 20 21 21 21 21 21 22 22 21 21 21 21 21 20
24 24 24 23 22 21 20 20 21 23 23 23 21 20 20 21 21 20 20 21 21 21 18 15 15 16 17 17 18 18 18 19 20 20 20 21 22 21 21 21 21 21 22 22 23 22 22 22 21
22 22 21 20 20 19 18 18 19 22 22 21 20 20 21 21 20 19 19 19 20 18 14 15 14 17 17 17 17 18 18 19 20 21 21 22 22 21 22 22 21 22 23 23 23 23 22 22 22
20 19 18 18 17 16 15 14 16 17 18 18 18 20 20 20 19 18 18 18 17 16 14 13 13 14 16 16 17 19 18 19 21 22 23 23 24 23 23 23 22 23 23 24 24 23 24 23 23
17 16 16 15 14 14 13 13 14 14 14 15 17 18 19 19 17 17 17 16 16 17 15 13 13 14 14 15 15 17 19 21 23 23 24 24 24 24 23 22 22 23 24 24 25 24 24 24 24
17 16 15 14 14 14 12 12 13 13 13 14 15 16 17 19 16 15 16 15 15 14 14 12 13 14 15 16 16 18 21 22 23 23 24 24 24 24 24 23 23 24 25 26 26 26 25 25 25
16 14 13 13 13 13 13 13 14 14 14 15 16 16 16 16 15 14 14 14 15 15 14 13 14 15 16 18 19 21 22 23 24 24 24 24 24 24 24 24 24 25 26 27 27 27 27 27 27
16 14 12 12 12 13 14 16 16 16 16 16 15 15 14 15 16 15 14 15 15 16 15 16 16 17 18 19 21 22 22 23 25 24 25 25 25 25 25 25 26 26 27 28 28 28 28 28 28
16 15 14 15 15 15 16 17 16 16 17 16 16 15 14 15 15 15 15 15 16 17 17 18 18 19 19 20 21 23 23 24 25 25 25 25 26 26 26 26 27 27 28 29 29 29 29 29 29
16 17 16 16 18 18 18 18 18 19 19 18 16 15 15 16 15 16 16 16 17 18 18 19 19 20 21 22 23 24 24 25 25 25 25 26 27 27 27 27 28 28 29 29 30 30 30 29 29
16 18 18 17 18 19 19 19 20 19 20 19 18 17 16 16 16 16 16 17 17 18 19 20 21 21 22 23 24 25 25 26 26 26 26 26 27 27 28 28 28 28 29 29 29 29 30 30 30
16 17 17 16 17 18 19 20 20 20 20 19 20 19 17 17 17 17 17 18 19 19 20 21 22 23 24 24 25 25 26 26 26 27 27 27 27 28 28 28 28 28 29 29 29 29 30 29 29
14 16 17 16 16 16 18 20 19 19 18 18 20 19 18 18 17 17 18 19 20 21 21 22 23 24 25 25 25 26 26 27 27 27 27 27 27 27 28 28 28 28 28 28 29 29 29 29 29
14 15 15 16 15 14 15 16 16 15 16 18 19 19 18 17 17 17 19 20 20 22 23 24 25 26 26 27 27 27 27 27 27 27 27 27 27 27 27 27 27 27 28 28 27 28 28 28 27
13 13 14 15 16 16 15 14 13 14 16 18 17 17 18 16 16 18 20 21 22 23 24 26 27 27 28 28 28 28 28 28 28 28 28 28 27 27 27 27 27 27 27 27 26 27 27 27 26
13 14 15 15 15 16 17 15 15 14 14 15 14 15 17 17 18 19 21 22 23 24 25 27 28 28 28 28 29 28 28 28 28 28 28 28 27 27 27 27 27 26 25 26 26 25 25 25 25
13 13 15 15 14 14 16 15 14 14 14 15 14 15 16 18 20 22 23 24 25 26 27 28 28 29 29 30 30 30 29 29 29 28 28 27 26 26 26 26 25 25 25 25 25 24 23 23 23

GEFSSGP_500_meanwind_120.txt.gz
Wind_Speed
17 17 17 17 17 17 17 19 19 18 17 15 13 11 10 10 10 10 10 10 9 8 8 8 8 8 7 6 6 6 5 5 5 4 4 4 4 5 5 5 6 7 7 8 8 8 8 8 7
18 17 17 18 18 18 19 20 20 19 18 17 15 13 11 11 12 12 11 11 10 10 10 10 9 9 8 8 7 7 7 7 6 6 5 5 6 5 5 5 6 6 7 7 8 8 8 8 7
18 18 18 18 18 19 21 22 22 21 19 18 15 14 13 13 13 14 14 13 13 12 11 11 11 10 9 9 9 9 9 8 8 7 7 7 7 7 6 6 7 7 7 8 8 8 8 8 7
17 18 18 18 20 22 23 23 22 22 20 18 17 15 14 14 14 15 15 16 16 14 13 13 12 11 11 11 11 10 10 10 9 9 8 8 8 8 8 8 8 8 8 8 8 8 8 8 8
17 17 17 19 21 23 25 25 24 23 21 20 18 17 15 15 15 16 17 17 17 16 15 14 13 13 13 13 13 12 12 11 11 11 10 10 9 9 9 9 9 9 10 10 10 9 9 9 9
16 16 18 20 23 25 26 26 26 25 23 21 19 18 16 16 16 17 18 19 18 18 17 15 15 15 14 14 15 14 13 13 13 12 12 11 11 11 11 11 11 11 11 11 11 11 10 10 10
16 17 19 22 25 26 28 27 26 25 23 21 20 19 19 18 18 18 18 19 19 18 17 16 16 16 15 14 15 16 15 15 15 14 13 13 13 13 13 13 13 13 14 13 13 13 12 12 12
17 18 21 24 26 28 28 27 26 25 23 21 20 19 19 19 20 20 19 19 19 18 17 17 16 17 17 16 16 17 16 16 16 15 15 15 15 14 15 15 15 15 15 15 15 14 14 14 13
17 19 22 26 28 29 29 28 26 25 23 22 20 19 19 20 20 19 19 19 18 18 17 17 17 17 18 18 17 18 17 17 17 17 17 16 16 16 16 16 16 16 16 16 16 16 16 15 15
18 20 23 27 29 30 29 28 27 26 24 23 21 19 19 19 18 18 18 17 17 17 16 18 18 19 20 20 19 19 18 18 18 18 18 17 17 17 17 18 18 18 17 17 17 17 17 17 17
19 21 24 27 29 30 30 29 27 26 25 23 21 20 19 19 19 18 17 16 16 17 18 18 19 20 22 22 21 19 19 19 18 18 18 18 18 18 18 18 19 19 19 19 19 19 19 19 18
21 23 25 27 29 30 30 29 28 26 24 23 22 21 19 18 19 18 17 16 17 17 17 18 19 20 20 23 23 22 21 20 19 19 19 20 20 20 20 20 19 20 20 20 20 20 20 20 19
23 25 26 28 30 30 29 29 28 26 25 23 22 20 18 18 17 17 17 17 17 16 17 17 16 17 17 19 21 21 21 21 21 20 21 21 21 21 22 22 21 21 21 21 21 21 21 20 20
23 25 26 27 28 29 30 29 28 27 25 23 22 20 18 18 17 17 17 16 16 15 15 15 14 15 16 19 20 22 22 22 21 22 22 23 23 22 22 22 22 22 22 22 22 22 22 22 22
23 24 25 26 27 29 29 28 27 25 24 23 21 20 19 18 17 17 18 17 16 16 16 16 15 15 17 19 21 24 24 23 23 23 23 22 22 23 22 22 23 23 23 23 24 24 24 23 23
24 24 25 25 27 28 28 27 26 24 23 21 20 19 18 17 17 17 16 16 16 16 16 16 14 15 17 19 21 23 24 24 24 24 23 23 24 24 24 23 24 25 24 25 25 26 25 25 24
23 24 25 26 26 27 26 25 25 23 21 20 19 18 18 18 18 17 16 16 16 16 15 14 14 15 16 17 20 20 22 24 24 24 24 24 25 25 25 24 25 25 25 25 26 26 26 26 25
22 23 24 25 25 25 25 24 24 23 21 19 18 18 17 17 17 15 14 15 15 16 14 13 14 15 16 17 18 20 21 22 24 24 24 24 25 24 25 24 24 26 26 26 26 26 27 27 26
22 23 23 24 25 24 23 22 22 21 19 18 17 17 16 16 15 14 14 14 15 15 14 14 14 14 15 17 17 18 20 21 23 24 24 24 24 24 24 24 25 25 25 26 26 27 27 27 28
20 21 22 23 24 23 22 21 20 19 18 17 16 16 16 15 15 15 15 15 15 14 14 16 15 15 15 15 16 18 19 20 20 21 22 22 22 23 23 24 25 25 25 26 26 26 27 27 27
19 19 20 21 23 23 22 21 21 20 18 17 15 15 15 15 16 17 17 16 14 14 14 14 15 16 16 16 17 18 18 18 19 20 20 21 22 23 23 24 25 26 27 27 27 27 27 28 28
18 19 20 20 21 21 21 21 20 19 18 16 15 14 14 15 15 16 15 15 14 14 14 14 14 15 16 17 18 19 18 19 19 19 20 21 22 23 24 25 25 26 27 27 28 27 28 28 29
17 18 19 20 19 20 20 20 18 18 17 15 15 15 15 15 16 16 15 16 15 15 15 15 15 16 17 17 18 18 19 19 20 20 22 22 23 24 25 26 26 27 27 28 28 28 28 29 30
17 18 18 18 17 18 18 19 17 16 16 15 15 15 16 16 17 17 17 17 17 17 17 17 17 17 17 18 19 19 20 21 21 22 23 23 24 24 25 25 26 26 27 28 27 28 28 29 30
16 17 17 17 17 17 17 17 15 15 15 15 15 15 16 18 18 19 19 18 18 18 18 18 18 19 20 21 21 22 22 23 23 24 24 24 24 25 25 26 27 27 27 27 27 28 29 29 30
16 16 17 17 17 17 17 16 14 14 15 15 15 16 17 18 19 19 19 19 19 19 19 20 21 22 23 23 24 24 25 25 25 25 25 25 26 26 26 27 27 28 28 28 28 28 29 30 29
15 16 16 17 17 17 16 15 14 14 14 15 15 16 16 17 19 19 19 20 20 21 22 23 24 25 25 25 26 27 27 27 27 27 27 27 27 27 27 27 28 28 28 28 29 28 28 28 29
14 14 15 16 17 17 16 16 15 16 15 15 16 16 17 18 18 19 19 20 22 23 24 24 26 27 27 27 28 28 28 28 28 28 28 28 28 28 28 28 28 29 29 29 29 29 28 28 28
14 14 15 16 16 16 16 15 15 15 15 16 16 16 17 18 19 19 20 21 22 23 25 26 27 28 28 28 28 28 28 28 29 29 29 29 28 28 29 29 29 29 29 29 29 29 28 28 27
15 14 15 15 15 15 16 15 15 15 15 16 16 16 17 18 19 19 21 22 23 25 25 26 26 27 28 28 29 29 29 29 29 29 30 30 30 30 30 30 30 29 29 29 29 28 28 27 27

GEFSSGP_500_meanwind_126.txt.gz
Wind_Speed
16 16 16 15 14 15 16 17 15 14 13 11 10 10 9 8 6 5 5 4 4 3 4 4 4 4 5 6 6 7 7 6 5 4 3 2 1 1 1 2 2 3 4 4 4 5 5 5 5
17 17 17 16 15 15 19 19 17 15 13 12 11 11 10 10 9 8 7 7 5 5 5 5 5 6 6 7 8 8 8 7 7 6 5 4 3 2 1 0 1 1 2 3 3 4 4 4 4
17 17 17 18 17 18 21 19 18 15 14 13 13 12 12 11 11 10 9 8 7 7 6 6 7 8 9 9 9 9 10 9 8 8 7 6 5 4 3 3 2 2 2 2 3 4 4 4 3
17 17 18 19 20 22 22 19 18 16 15 14 14 13 12 12 11 10 10 9 9 8 7 7 7 9 10 11 10 10 11 11 10 10 9 8 7 6 5 5 4 4 3 3 4 4 4 4 4
17 17 18 19 22 23 22 20 18 17 16 15 15 14 14 13 13 12 10 10 10 9 9 9 9 10 10 11 11 11 12 12 12 12 11 10 9 8 8 7 6 6 6 6 6 6 6 6 6
16 17 18 20 22 23 23 21 20 18 17 17 16 16 15 14 14 13 11 11 11 11 12 12 12 12 13 13 14 13 13 13 14 14 13 12 11 10 10 9 9 8 8 8 8 8 8 8 7
16 17 18 21 22 24 23 21 20 19 19 18 17 17 16 14 14 13 13 13 13 13 13 13 14 14 15 15 15 16 16 15 16 16 15 14 13 13 12 11 11 10 10 10 10 10 10 9 9
16 17 19 21 23 24 22 21 21 20 20 18 18 17 17 15 15 14 15 14 14 14 14 14 14 15 16 16 17 18 18 18 18 18 17 16 16 15 14 13 13 12 12 12 12 12 11 11 10
17 18 20 23 24 24 23 22 21 21 20 19 19 18 17 17 16 15 15 14 15 14 14 14 15 15 16 17 17 19 19 19 19 19 18 18 18 17 17 16 15 15 14 14 14 13 13 13 12
17 20 22 23 23 24 23 23 22 21 21 20 19 18 17 17 16 15 15 15 15 15 14 14 15 15 17 17 17 19 20 21 20 20 20 20 20 19 18 17 17 16 16 16 15 15 14 14 14
19 21 22 22 23 23 24 23 22 22 22 21 20 19 18 18 17 16 15 15 15 15 14 14 15 16 17 17 19 19 20 21 22 21 21 21 21 20 19 19 18 18 18 17 17 16 16 16 16
20 21 22 22 22 23 23 23 23 23 23 21 20 19 18 18 18 17 16 16 16 15 15 15 15 16 18 18 19 19 20 22 23 23 23 22 22 21 21 20 20 20 19 19 18 18 18 17 17
21 21 21 21 22 22 23 24 24 23 22 21 20 20 19 19 18 17 17 17 16 16 16 16 16 18 19 19 19 19 21 21 22 23 23 23 23 23 22 22 22 21 21 20 20 20 20 18 18
21 21 21 22 22 23 23 23 23 23 22 22 20 20 19 19 18 18 18 17 16 16 17 17 17 16 17 18 18 20 21 21 23 25 25 25 24 24 24 23 23 22 21 22 21 21 22 21 21
20 21 22 22 23 23 23 23 24 23 22 21 21 20 19 18 18 18 18 18 17 17 17 17 17 17 17 17 18 19 21 22 24 25 25 25 25 25 25 25 24 23 23 23 23 23 23 23 22
19 20 22 23 23 23 22 23 24 23 22 21 21 20 20 19 19 18 18 18 18 18 18 17 16 17 17 18 19 21 23 24 25 25 26 26 26 26 26 26 25 25 24 24 24 24 24 25 24
18 19 21 23 22 22 21 23 24 22 22 21 21 20 20 19 19 19 19 18 18 18 18 18 18 18 18 19 20 21 23 24 25 25 26 27 28 28 27 27 26 26 25 25 25 25 25 25 25
17 18 19 21 21 21 21 22 22 21 21 21 21 21 20 19 19 19 19 19 19 19 19 19 19 20 20 20 21 22 22 22 22 24 26 27 28 29 28 28 27 26 26 27 26 26 26 26 25
17 17 18 20 20 20 20 21 21 21 21 21 20 20 20 19 19 19 20 20 20 19 19 20 21 20 21 21 21 21 21 22 22 23 25 25 27 28 28 28 27 27 27 27 27 27 26 26 27
16 16 17 19 19 19 19 19 19 19 19 19 19 19 20 19 19 19 19 19 18 19 19 20 20 20 20 20 20 20 20 21 22 23 23 25 26 27 27 27 26 25 26 26 27 27 26 27 27
14 15 15 17 17 17 17 18 18 18 18 18 18 19 20 19 18 19 19 19 19 19 20 21 20 20 20 20 19 19 19 21 22 22 23 24 25 26 26 27 27 26 26 26 26 27 27 27 27
13 14 15 15 13 15 15 15 18 18 19 18 19 19 19 19 19 19 19 19 20 21 21 21 21 21 20 20 20 20 20 21 22 23 23 23 24 26 26 26 26 26 27 27 27 28 27 27 28
13 13 14 14 13 14 14 15 17 18 18 18 18 19 19 19 19 20 20 20 21 22 22 21 21 21 20 20 20 21 21 21 22 22 22 23 23 24 25 25 26 26 27 28 28 28 27 27 28
13 13 13 13 12 13 14 14 16 18 17 17 18 18 18 19 19 20 20 21 21 21 21 22 22 21 21 21 21 21 21 22 23 23 23 23 24 24 25 25 26 27 27 27 28 28 28 27 27
13 11 11 12 13 14 15 14 15 16 16 17 17 17 18 19 20 20 20 21 21 21 21 21 21 20 20 21 21 22 22 23 24 24 24 24 24 25 25 26 27 27 28 28 28 28 27 28 28
13 13 12 12 13 13 16 16 16 15 16 17 17 18 19 19 20 21 22 22 23 23 22 22 21 22 22 22 22 23 24 25 25 25 26 26 26 27 27 27 28 28 29 28 28 28 28 28 28
14 14 13 13 13 13 15 16 16 16 16 16 17 18 19 20 21 22 22 23 23 24 24 24 24 24 24 24 25 26 27 27 27 27 28 28 28 28 29 29 30 30 30 29 29 29 29 29 29
15 14 14 12 13 13 13 14 15 15 15 15 17 17 19 20 21 22 23 24 24 24 24 25 25 26 26 26 27 27 28 28 28 28 29 29 30 30 30 30 30 31 31 31 31 31 30 30 30
15 15 15 14 14 13 13 14 15 15 15 16 17 18 20 21 22 23 23 24 25 25 25 25 26 26 27 27 27 27 27 28 29 29 29 29 30 30 31 31 31 32 32 32 31 31 31 31 30
15 15 14 14 14 14 14 15 16 15 16 16 17 19 20 21 22 22 24 24 25 26 26 26 26 26 27 27 27 27 28 28 29 29 29 29 30 30 31 31 31 32 32 32 32 31 31 31 30

GEFSSGP_500_meanwind_132.txt.gz
Wind_Speed
13 12 11 10 8 5 3 5 10 15 16 15 12 11 11 10 10 10 9 10 9 9 9 9 8 8 8 8 8 8 8 8 8 8 8 7 7 6 6 5 4 3 2 1 0 1 1 2 2
14 13 12 11 9 4 1 8 16 17 18 14 12 12 12 13 12 12 11 12 11 10 10 10 10 10 10 10 10 10 10 10 10 10 10 9 8 8 8 7 6 5 4 3 2 1 2 2 2
14 13 12 11 8 4 6 14 20 20 17 14 13 14 13 14 13 12 12 13 12 11 11 11 11 11 11 11 12 12 12 12 12 11 11 11 10 10 10 9 8 6 5 4 3 3 3 3 3
14 13 12 11 8 7 12 19 21 20 17 15 15 14 14 14 14 13 13 13 12 11 12 11 12 13 13 13 13 14 13 14 14 13 13 13 13 12 11 10 9 8 7 6 6 5 4 4 5
13 13 12 10 8 12 20 22 21 18 18 16 17 16 15 14 14 13 13 13 13 11 12 12 13 13 14 15 15 15 15 16 16 15 15 15 14 13 13 12 11 10 10 9 8 7 6 6 6
12 12 11 7 8 17 23 24 19 16 17 17 18 16 15 14 14 14 13 13 13 12 12 13 14 14 15 15 16 17 17 18 18 17 17 16 16 15 14 14 13 12 12 11 10 9 8 8 8
13 13 10 7 10 19 24 22 17 15 16 18 17 15 15 14 15 14 14 14 14 13 13 13 13 14 16 16 17 18 19 19 19 19 19 18 17 17 16 15 15 14 14 13 12 11 10 10 10
13 13 11 9 12 19 25 21 17 16 16 18 18 16 15 14 14 14 15 15 15 15 14 14 14 15 16 17 19 20 21 21 21 21 21 20 19 19 18 17 17 16 16 15 14 14 13 12 12
12 11 9 9 13 18 24 21 17 16 17 20 19 17 16 15 14 14 16 16 15 15 14 14 15 16 17 17 19 20 21 22 22 22 22 22 21 20 20 20 19 18 18 17 16 15 15 14 13
11 10 8 11 16 20 21 19 18 16 18 20 20 19 17 16 15 16 16 16 16 16 15 15 16 17 17 18 19 20 21 22 22 22 23 24 23 22 21 21 20 20 19 19 18 17 17 16 16
13 14 15 19 22 21 20 17 18 17 18 21 21 19 16 15 17 17 17 17 16 16 17 17 17 19 19 19 20 20 21 22 22 23 24 24 24 23 22 22 22 21 21 20 19 19 19 18 18
15 17 19 21 23 22 19 17 19 18 19 20 22 19 17 16 18 18 18 17 17 17 18 19 19 20 19 19 21 21 22 23 24 24 25 25 25 24 24 23 23 23 21 21 21 21 20 20 19
16 18 20 20 20 20 21 20 19 19 21 21 22 20 18 17 18 18 19 19 18 18 19 19 20 21 20 21 22 23 24 25 25 24 25 24 25 25 25 26 24 24 23 22 22 22 22 21 21
16 18 19 19 19 20 20 18 18 20 22 22 22 18 17 18 18 18 18 18 18 18 18 19 20 22 22 23 24 24 24 24 24 25 24 23 24 25 25 24 24 24 24 24 23 23 22 23 22
16 17 17 18 18 19 18 17 19 20 22 22 21 20 20 20 19 19 19 20 20 18 18 20 21 22 23 23 23 24 24 23 24 24 24 23 23 25 25 25 26 25 24 24 25 24 24 24 23
14 15 15 15 16 18 16 17 18 20 22 22 21 21 21 21 20 19 20 20 19 19 20 21 22 23 23 23 23 23 23 23 23 23 24 25 25 24 25 25 26 26 26 26 26 25 25 24 24
12 13 13 14 18 17 16 16 19 22 22 22 20 21 22 20 20 19 20 20 20 20 21 22 22 22 22 22 23 22 22 22 22 23 25 27 25 25 25 25 26 25 26 26 25 25 25 24 24
11 12 12 15 19 18 16 17 20 22 22 22 20 20 22 22 20 19 19 20 21 21 22 22 23 23 23 23 24 24 24 23 23 24 25 25 25 25 26 26 26 26 25 24 24 25 24 24 24
12 13 14 16 18 18 16 17 20 23 23 22 19 20 22 23 21 20 19 20 22 22 22 24 24 23 23 24 24 24 24 24 24 24 24 24 24 25 25 25 25 24 24 24 25 24 24 24 24
14 15 15 17 18 18 16 18 19 22 22 22 21 22 22 22 21 21 21 21 21 22 23 24 24 24 25 24 25 25 25 25 25 25 24 23 23 23 23 24 24 24 25 25 25 25 24 24 24
15 16 17 17 19 18 17 19 21 22 23 22 20 22 24 23 22 21 20 21 22 23 23 23 24 25 25 25 25 25 25 25 25 24 23 23 23 23 23 24 25 25 25 24 24 24 23 23 23
16 16 17 16 17 18 18 19 22 23 22 22 21 22 24 23 22 21 21 20 21 21 22 22 24 24 25 25 26 25 25 25 24 24 23 23 23 24 25 24 25 25 25 24 24 25 24 24 23
15 16 17 17 17 18 18 19 21 23 24 24 24 24 23 22 23 22 21 20 21 21 22 23 24 24 24 25 25 25 25 24 23 24 24 23 23 24 24 25 26 26 26 25 25 25 25 24 24
16 16 16 17 17 20 19 20 23 25 25 25 24 22 21 21 22 22 22 22 22 23 24 24 24 24 25 25 25 25 25 25 24 24 24 23 23 24 24 25 26 26 26 26 25 25 25 24 24
15 15 15 17 19 21 19 21 24 24 25 23 21 21 20 19 21 22 22 22 23 24 24 24 25 26 26 25 25 26 26 25 25 25 25 24 23 24 23 24 24 24 25 26 26 26 25 25 26
15 16 16 18 19 19 18 21 24 23 24 22 21 21 20 20 21 22 23 22 22 24 25 26 27 28 28 28 27 26 26 26 26 26 26 25 24 24 23 23 23 24 25 25 26 26 26 26 26
15 16 16 18 18 18 19 22 23 22 21 20 21 21 21 22 23 23 23 23 23 24 25 26 27 28 28 27 26 26 27 27 26 26 26 25 25 25 24 24 23 24 24 25 26 26 26 26 27
16 16 17 18 17 17 18 21 21 21 19 19 20 21 21 22 23 23 24 25 25 25 25 26 27 27 27 27 27 27 27 27 27 27 26 26 25 24 25 25 25 25 26 27 27 27 28 28 28
16 16 17 18 18 18 19 20 20 19 19 18 20 21 21 22 24 24 25 25 25 25 26 26 27 27 27 27 27 27 27 27 27 26 25 25 25 25 25 25 25 26 26 27 28 28 29 29 29
18 18 18 20 20 19 21 22 21 20 19 19 20 22 22 23 24 25 25 25 25 26 27 27 27 27 27 27 27 27 27 27 27 26 26 26 26 25 25 25 25 26 26 26 26 27 28 28 28

GEFSSGP_500_meanwind_138.txt.gz
Wind_Speed
8 7 7 7 8 9 10 11 10 10 9 10 11 13 13 12 10 8 7 6 6 5 5 6 6 6 6 6 7 8 9 9 10 10 10 10 10 10 10 9 8 8 7 7 6 6 5 4 4
9 8 8 8 10 12 12 12 11 11 11 12 13 15 14 12 11 9 9 8 7 7 7 7 7 7 7 8 8 9 10 11 11 11 11 11 11 11 11 11 10 9 9 8 8 7 6 6 5
10 10 10 11 12 14 14 13 13 13 14 14 16 16 15 13 11 10 11 10 9 9 9 9 9 9 9 9 10 11 11 12 13 13 13 13 13 13 12 12 11 11 10 10 9 9 8 7 6
11 11 12 13 15 15 16 15 14 15 16 17 17 17 15 14 13 11 11 10 10 10 10 10 10 10 10 11 12 13 13 14 14 15 15 14 15 15 14 14 13 13 12 11 11 10 9 8 8
12 13 13 15 17 17 17 16 16 17 19 19 19 18 17 17 15 12 11 11 10 10 10 10 10 11 12 13 13 14 14 15 15 16 16 16 17 17 16 15 15 14 13 13 12 12 11 10 9
13 13 15 17 19 18 18 16 17 19 20 22 22 21 19 15 12 11 11 11 11 11 11 11 12 12 13 14 14 14 15 16 16 17 18 18 18 18 18 17 16 16 15 15 14 13 13 12 11
13 13 15 18 20 20 18 16 17 20 22 23 22 21 18 15 12 11 12 13 11 12 13 13 13 14 14 14 15 16 16 16 18 18 19 19 19 19 19 19 18 18 17 16 16 15 14 14 13
13 14 17 20 22 20 18 16 18 20 22 23 23 22 19 17 14 12 12 13 12 13 14 15 15 15 15 16 16 16 17 18 19 19 20 20 20 20 20 20 20 19 19 18 17 17 16 15 14
13 16 19 23 23 21 18 17 19 21 22 22 22 20 19 18 15 14 13 14 14 14 15 16 16 16 16 16 17 17 17 18 19 20 20 20 20 21 21 21 21 21 20 20 20 19 18 17 16
15 19 22 23 24 22 19 18 19 21 22 21 19 18 19 18 17 16 15 15 16 16 16 16 17 17 17 17 18 18 18 18 19 19 20 20 21 22 22 23 23 23 23 22 21 21 20 19 18
18 22 24 24 23 22 21 19 20 21 21 19 19 19 20 20 20 17 16 17 17 17 17 18 17 18 18 18 18 19 19 19 20 21 21 21 22 23 24 23 24 24 24 24 23 22 22 20 20
20 23 25 24 22 21 20 20 21 21 21 20 19 19 18 18 19 17 18 18 18 18 18 18 18 18 18 18 18 19 19 19 20 21 21 22 23 24 24 24 24 24 25 25 24 23 22 22 21
21 23 23 23 22 21 20 22 23 22 21 20 20 19 18 18 16 18 20 21 19 18 19 18 18 19 18 18 18 19 19 20 21 21 22 23 24 25 26 27 26 25 25 25 25 24 23 23 22
22 23 22 22 22 22 21 21 22 23 22 21 20 20 19 19 20 20 21 21 19 19 19 19 19 17 18 18 19 19 20 21 21 22 22 23 23 24 27 27 26 26 25 24 24 25 24 23 23
21 22 21 21 21 21 21 21 21 21 22 21 20 20 19 20 19 19 20 19 18 18 17 18 18 17 18 18 19 20 21 21 21 22 22 23 23 23 24 24 23 23 24 25 24 24 24 23 23
21 21 20 19 20 20 20 20 19 20 20 20 20 19 18 18 17 18 18 18 17 18 17 16 17 18 18 18 19 21 21 22 22 22 22 23 23 22 23 23 23 22 22 22 23 23 23 23 22
19 18 19 18 18 18 19 18 17 17 18 18 17 17 18 19 19 20 18 16 16 18 18 17 18 18 18 18 20 21 22 22 22 22 22 23 22 22 21 21 21 21 22 22 22 23 23 22 22
16 16 16 16 15 17 17 17 16 16 16 17 17 17 18 20 18 19 18 17 17 18 18 17 19 19 19 19 21 22 22 22 22 22 22 22 23 22 21 21 21 21 22 23 23 23 23 23 24
16 16 15 15 14 16 17 17 17 16 16 17 17 17 18 19 19 19 18 16 18 18 18 19 20 20 19 21 22 22 22 21 21 22 22 22 21 21 21 20 20 21 23 23 23 24 23 23 23
16 16 15 15 15 17 17 18 17 18 19 19 19 19 20 20 19 19 19 19 18 19 20 19 20 20 21 21 22 22 22 21 21 21 21 20 20 20 20 20 20 21 22 23 23 24 24 22 23
16 17 16 15 15 17 18 19 19 20 21 22 22 22 22 21 20 19 18 19 19 20 20 20 21 21 21 22 22 22 22 22 21 20 20 20 20 20 20 20 21 21 22 22 22 23 22 22 22
16 17 17 16 17 18 20 21 21 22 24 25 24 24 22 22 18 18 19 20 19 20 21 21 21 21 22 22 23 23 22 22 22 21 21 20 20 20 21 21 22 22 21 21 22 22 22 22 23
17 18 19 19 19 20 21 24 24 24 25 26 25 24 23 22 20 19 19 20 20 21 21 22 21 22 22 23 23 23 23 23 23 23 23 21 21 22 22 22 21 21 21 22 22 22 22 22 22
18 19 20 21 22 23 22 24 25 24 24 26 24 24 24 23 21 20 20 20 19 20 21 21 22 22 23 23 24 24 25 25 25 24 23 23 23 22 22 22 21 22 22 22 21 22 22 22 22
19 20 21 22 23 24 23 25 25 24 25 27 26 27 26 25 23 22 21 20 19 19 20 21 21 23 24 24 26 26 26 25 25 24 24 23 23 21 21 20 20 21 22 22 22 22 22 22 22
19 20 22 23 23 23 23 25 24 24 24 25 27 26 25 25 24 23 22 21 20 20 20 21 22 23 25 25 26 26 26 26 25 25 24 24 23 22 21 20 20 20 20 20 21 22 22 23 23
18 19 21 23 23 23 21 21 22 23 23 22 24 24 25 24 24 24 24 22 22 21 21 22 23 24 25 25 26 27 26 26 25 25 25 24 24 23 22 22 21 21 21 20 20 21 22 23 24
20 20 20 22 23 23 22 21 22 21 21 21 22 23 22 23 24 24 23 22 22 21 22 22 23 24 25 26 26 26 25 25 24 24 24 24 24 23 22 21 20 20 20 21 21 21 22 23 23
18 20 21 22 22 23 23 22 22 21 20 20 20 21 21 20 21 22 22 22 21 21 21 23 24 24 25 26 26 25 25 24 24 24 24 24 23 22 22 21 20 21 21 22 21 21 21 21 22
19 20 21 22 22 22 23 22 20 20 19 19 19 20 21 20 19 18 20 21 22 22 22 23 23 24 25 25 25 25 25 25 25 24 24 24 23 22 21 21 21 21 22 22 21 21 21 21 21

GEFSSGP_500_meanwind_144.txt.gz
Wind_Speed
8 8 9 9 10 9 9 9 7 6 5 4 5 6 8 8 7 8 8 8 8 8 8 8 7 7 7 7 7 6 6 6 6 7 7 8 9 9 9 9 10 10 10 10 10 9 9 9 8
9 9 10 11 11 12 11 11 9 8 6 6 6 8 9 10 9 9 10 10 10 10 9 9 9 9 8 8 8 8 7 7 8 8 9 9 10 10 11 11 11 11 11 11 10 10 10 9 9
11 11 12 12 13 13 13 11 10 9 8 8 8 9 10 11 11 12 12 12 11 11 11 11 10 9 9 9 9 9 9 9 9 10 11 11 12 12 12 12 12 13 12 12 11 11 11 10 10
12 13 14 14 15 15 14 13 11 11 10 9 10 11 11 12 14 14 14 13 12 12 12 11 11 10 9 9 9 10 10 10 11 12 12 13 13 13 13 13 14 14 13 13 13 12 12 12 11
14 14 15 16 16 17 16 16 14 13 12 11 11 11 13 14 15 15 15 14 13 13 13 12 11 11 10 10 10 11 11 12 12 13 13 14 15 15 15 15 15 15 14 14 14 14 13 13 13
14 16 17 17 18 19 19 18 16 15 14 12 12 12 13 15 16 15 14 14 14 14 13 13 12 11 11 11 12 12 13 13 14 14 15 15 15 16 16 16 16 16 16 16 16 15 15 14 14
15 17 19 20 21 21 20 19 19 18 17 15 14 14 15 16 15 14 15 15 15 14 14 14 13 13 12 12 13 13 14 14 15 15 16 16 16 17 17 17 18 17 17 17 17 17 16 16 16
17 18 20 22 23 23 22 21 20 19 17 16 15 15 16 16 15 15 15 15 16 15 16 16 16 14 14 14 14 14 14 15 16 16 16 17 17 18 18 18 18 18 18 18 19 18 18 18 17
18 20 22 24 24 24 23 22 21 20 19 18 17 16 17 17 17 17 16 16 16 16 17 18 18 16 15 15 16 16 15 16 16 16 16 17 18 18 18 18 19 20 20 20 20 20 20 19 19
19 21 24 25 25 26 25 23 22 21 21 20 18 17 17 17 17 17 17 17 17 18 18 19 19 18 17 16 17 17 17 17 17 17 18 18 19 19 19 19 19 20 20 21 21 21 21 21 20
19 22 24 25 26 26 27 25 23 22 22 20 19 18 18 18 17 17 17 18 19 19 19 20 20 19 18 17 17 17 17 17 18 18 19 19 20 20 21 21 21 21 22 22 22 22 22 22 22
20 22 25 26 26 26 26 26 25 24 22 21 20 20 20 18 18 18 19 20 21 21 20 21 21 20 19 19 18 18 18 18 18 18 19 20 20 21 22 22 23 23 23 23 24 24 23 23 22
21 23 24 24 25 26 26 26 25 24 23 22 21 21 21 20 19 19 20 21 21 21 21 21 22 20 20 20 20 19 19 20 20 20 20 20 21 21 22 23 24 25 25 25 25 25 24 24 23
22 23 23 24 25 26 27 26 25 24 24 24 23 22 21 20 19 19 20 20 21 21 21 21 20 20 20 20 21 20 20 19 20 20 21 21 22 23 23 23 23 24 25 25 25 25 25 25 24
22 23 23 25 26 27 27 26 25 25 25 25 24 23 20 19 20 20 20 20 21 21 21 20 20 20 20 20 21 21 20 20 21 21 22 22 23 23 23 24 24 25 24 24 24 24 25 25 24
22 23 24 26 27 28 27 25 25 25 25 25 23 22 21 21 21 22 21 20 20 21 21 21 20 20 20 20 20 20 20 20 21 22 22 23 23 24 24 24 24 25 25 24 24 24 24 25 24
23 24 24 26 27 28 28 26 26 26 26 25 23 22 22 21 21 21 20 20 21 22 22 22 21 20 20 20 21 20 20 20 21 23 23 24 23 24 24 25 25 24 25 25 25 26 25 25 25
22 23 24 24 26 27 27 27 27 26 26 25 23 22 22 21 21 20 19 21 21 21 20 21 21 19 19 19 21 20 20 21 21 23 24 24 24 24 24 25 25 24 24 25 25 26 26 26 26
21 22 23 24 25 26 27 27 26 26 26 25 24 23 22 20 20 20 20 21 20 18 18 18 19 20 19 19 20 21 21 22 23 23 24 25 24 24 24 24 23 23 22 23 24 25 26 26 26
20 21 22 22 24 26 27 27 27 27 26 25 24 23 21 21 21 20 21 20 20 20 19 19 19 19 19 20 21 22 22 22 24 24 24 24 24 23 24 24 23 23 22 23 24 25 26 26 26
21 21 21 22 24 26 27 27 26 26 25 24 23 22 21 22 22 22 21 21 21 20 19 19 20 20 21 21 21 22 22 23 24 24 24 24 23 23 23 23 23 23 23 23 23 24 25 26 26
20 21 22 22 23 24 26 27 25 25 24 23 23 22 22 22 23 22 22 23 22 21 21 20 20 21 21 22 22 23 23 23 24 24 23 24 24 24 24 24 24 24 23 23 24 25 26 26 27
20 21 22 22 23 24 24 27 25 24 24 24 23 23 23 24 24 23 23 23 22 21 21 21 21 21 22 23 23 23 24 24 25 24 24 24 24 24 24 25 25 25 25 25 25 26 26 27 27
20 22 22 23 24 25 24 26 24 23 23 23 23 23 23 25 25 24 24 24 23 23 24 23 23 23 23 24 24 24 25 26 25 25 26 26 26 26 26 25 26 26 25 25 25 25 25 26 26
20 21 23 24 24 24 24 26 24 23 24 23 23 23 23 23 23 24 24 25 24 25 25 25 26 25 23 23 23 24 25 26 26 26 27 27 28 28 27 26 26 26 26 25 25 25 26 26 25
21 21 23 25 25 24 25 26 25 24 25 24 24 24 24 23 22 23 25 24 25 26 26 25 25 25 25 24 24 25 25 26 26 27 28 28 27 27 26 26 27 27 26 25 25 25 26 26 26
20 21 23 25 26 26 26 26 25 25 25 24 25 24 25 23 23 23 24 24 25 25 26 26 25 25 26 25 25 25 25 26 26 27 28 28 28 27 26 26 27 26 26 25 25 26 24 24 24
20 20 22 24 26 27 25 24 24 23 24 24 24 24 24 23 23 22 23 24 24 24 25 25 25 25 25 25 25 25 25 25 26 27 28 28 28 27 26 26 27 27 26 26 25 25 24 23 23
19 20 20 22 23 24 24 22 21 22 22 22 23 22 22 22 22 22 22 22 22 23 25 24 24 24 24 25 25 25 25 25 26 27 27 27 27 27 26 26 26 26 26 26 25 24 24 23 24
19 19 19 20 20 21 23 21 19 22 22 21 21 21 21 22 21 21 21 21 22 23 23 23 23 23 23 24 24 25 25 25 26 26 27 26 26 26 26 25 25 26 25 25 24 24 24 24 24

GEFSSGP_500_meanwind_150.txt.gz
Wind_Speed
8 7 6 6 5 5 5 4 3 2 2 2 1 0 2 2 3 4 4 4 5 6 6 5 5 6 6 6 6 6 6 5 5 5 4 4 4 5 5 5 5 5 5 5 6 6 6 6 6
9 8 8 7 7 6 8 5 4 4 3 3 3 3 4 4 5 5 6 6 6 7 7 7 6 7 7 8 8 8 7 7 6 6 6 6 6 6 6 6 6 6 6 6 6 6 6 6 6
10 9 8 8 8 9 9 7 6 5 5 5 4 5 6 7 7 7 7 7 8 7 7 7 7 8 9 9 9 9 8 8 7 7 7 7 7 7 7 7 7 7 7 7 7 7 7 7 7
11 10 10 10 11 10 9 8 7 8 7 6 7 7 8 9 8 8 8 8 9 8 8 8 8 9 10 10 10 10 9 9 9 8 9 9 9 8 8 8 8 8 8 8 8 8 8 8 8
12 11 11 12 12 12 10 9 9 9 9 9 9 10 10 11 9 9 10 10 9 10 9 9 9 10 10 11 11 11 11 11 10 10 10 10 10 10 9 9 9 9 9 9 9 9 9 9 9
12 12 12 13 14 13 12 11 11 11 11 11 11 12 12 12 12 12 12 11 11 11 11 11 11 11 11 12 12 12 12 12 12 12 12 11 11 11 11 11 11 11 11 11 11 11 11 11 10
13 13 14 15 15 15 14 13 13 14 14 13 14 14 13 13 14 14 13 13 13 12 13 13 13 13 13 14 14 14 13 12 12 12 12 12 12 12 12 12 12 12 12 12 12 12 12 13 12
14 14 15 16 17 17 16 15 15 15 16 15 15 15 15 15 15 15 15 14 14 14 14 14 14 14 14 15 15 15 15 14 13 13 13 13 13 13 13 13 13 13 13 14 14 14 13 14 14
15 15 17 18 18 19 18 18 17 17 17 17 17 16 16 16 16 15 15 15 14 14 14 15 15 15 16 16 16 16 16 15 15 14 14 14 14 14 14 14 14 15 15 15 15 15 15 15 15
15 16 19 19 19 19 19 19 19 19 19 18 17 17 17 17 17 16 16 15 15 16 16 15 15 16 17 17 17 17 17 17 16 15 15 15 16 15 15 15 16 17 17 17 17 17 17 17 16
16 17 18 19 19 19 20 21 20 20 20 18 18 18 19 19 19 18 17 17 16 16 16 17 18 18 19 19 20 19 19 18 18 17 17 17 17 17 17 16 17 18 18 19 19 19 19 18 18
16 17 18 19 19 19 20 21 21 21 21 20 20 20 20 20 20 20 20 19 18 18 17 18 19 21 21 21 21 21 20 20 19 19 18 18 18 18 18 18 18 19 19 20 20 20 21 21 20
17 18 18 19 19 19 20 21 21 21 21 21 21 21 21 22 21 21 21 20 20 19 19 19 20 21 22 22 23 22 22 21 21 21 20 20 20 20 20 20 20 20 21 21 21 21 22 22 21
17 18 19 19 20 20 21 22 22 23 23 22 22 22 23 22 21 21 21 21 21 21 21 21 22 22 23 23 23 23 23 22 22 22 22 21 21 21 21 21 21 21 21 22 21 21 22 22 22
18 18 20 21 21 21 21 22 23 23 24 24 23 23 23 22 21 22 22 21 21 21 22 23 23 24 24 24 24 24 24 23 23 23 23 22 22 21 21 22 22 23 23 23 22 22 23 23 24
18 19 20 22 22 22 22 22 23 24 24 24 24 23 23 23 22 23 22 22 22 22 23 24 24 24 24 24 24 26 26 25 24 24 23 23 22 23 23 23 24 24 24 24 24 24 24 24 25
18 19 20 23 23 24 23 22 24 24 24 24 24 24 24 24 23 23 23 23 23 24 25 25 25 25 25 26 26 27 26 25 25 24 23 23 23 24 24 25 25 24 25 24 25 25 25 25 26
19 19 21 23 24 24 24 24 24 25 26 26 25 25 25 25 24 24 24 24 24 25 25 25 24 25 26 27 26 25 25 25 24 23 24 24 24 25 25 25 25 25 25 26 26 26 26 26 26
19 19 20 22 23 23 24 25 25 26 26 26 26 26 26 26 26 25 25 25 25 25 26 25 25 25 26 26 26 25 24 23 23 24 24 24 25 25 25 25 26 26 26 27 27 26 27 27 27
17 18 19 21 22 23 24 25 25 26 25 25 25 26 26 26 26 26 26 26 25 25 25 26 25 25 25 25 25 24 24 23 23 24 24 24 24 24 25 26 26 25 26 27 27 27 27 27 27
17 17 18 20 21 22 23 23 24 25 25 25 25 25 26 26 27 26 26 26 26 26 26 25 26 25 25 25 26 24 23 24 24 24 24 25 25 25 26 26 27 26 26 27 27 27 28 27 27
17 18 19 20 20 21 22 22 22 24 25 25 25 25 24 25 25 25 25 25 26 26 26 25 24 25 25 26 24 24 25 26 25 25 25 25 26 26 26 27 27 27 27 26 27 28 28 27 27
17 18 18 19 20 21 22 23 23 25 24 24 24 24 24 24 24 24 25 26 26 26 26 26 25 25 25 25 25 25 26 26 26 26 26 26 27 27 27 28 27 27 27 27 28 28 27 26 26
17 17 18 19 19 20 21 22 22 23 23 24 24 24 24 24 24 25 25 26 26 27 26 25 25 25 25 25 27 27 27 27 27 27 27 28 28 28 28 28 27 28 28 28 27 27 27 27 27
16 17 17 18 18 19 21 21 21 23 23 23 24 24 24 25 25 24 25 26 26 27 26 26 26 26 26 26 26 27 28 28 28 27 27 28 29 29 28 28 28 27 27 26 27 26 26 27 27
16 17 17 18 17 18 20 21 21 22 22 22 22 23 24 24 23 23 24 25 24 25 25 25 26 27 26 26 26 27 28 28 27 28 28 29 28 28 28 28 28 28 28 27 26 26 26 26 27
18 18 18 19 20 20 19 21 22 21 21 21 21 22 22 22 21 22 22 23 23 24 25 25 26 27 27 27 27 28 28 27 27 28 28 28 28 28 29 29 29 28 28 27 27 26 26 26 26
18 18 19 18 19 19 19 20 20 20 19 19 19 20 21 20 21 21 22 23 24 25 26 27 26 27 27 27 27 27 27 27 26 26 27 28 28 28 29 28 28 27 27 26 26 26 26 26 26
19 18 18 18 18 18 19 19 20 20 19 18 19 19 19 20 21 21 22 23 24 25 26 26 26 27 27 27 27 27 26 27 27 27 27 27 27 27 27 27 27 27 26 26 25 25 25 25 25
19 19 18 18 19 19 19 20 20 19 19 18 19 18 18 18 19 20 21 22 23 24 25 26 27 27 28 28 28 28 27 27 26 26 26 26 26 26 26 26 26 25 25 25 24 24 24 24 23

GEFSSGP_500_meanwind_156.txt.gz
Wind_Speed
8 7 7 7 6 6 6 1 6 8 8 6 6 7 7 8 7 8 10 10 9 9 10 10 10 10 10 10 10 10 10 10 10 10 10 9 9 9 9 8 8 7 7 6 6 5 5 5 5
8 7 7 6 5 7 3 4 10 9 8 7 8 8 9 9 8 10 10 11 11 11 11 11 11 11 11 11 11 11 11 11 11 11 10 10 10 10 9 9 9 8 8 8 7 6 6 6 6
8 8 7 6 5 5 3 10 12 12 10 9 9 10 11 11 11 11 12 12 12 12 12 12 12 12 12 12 12 12 12 12 12 12 12 11 11 11 10 10 9 9 9 9 8 8 8 8 8
9 8 7 5 4 3 7 12 14 12 11 11 11 12 12 12 12 13 13 13 12 12 12 13 13 13 13 13 13 13 13 13 13 13 13 13 12 12 11 10 10 10 10 10 10 10 9 9 9
9 8 7 4 3 6 13 15 13 11 12 13 13 14 13 13 14 14 14 14 13 13 13 13 14 14 13 14 14 14 14 14 14 14 14 14 13 12 12 11 11 11 11 11 11 11 11 11 11
9 9 7 3 3 11 17 16 14 12 12 14 15 16 15 14 15 15 15 16 15 14 14 14 15 15 15 15 15 15 16 16 16 15 15 14 14 13 13 13 13 13 13 12 13 13 13 13 12
10 9 6 4 7 14 19 18 16 14 13 15 17 18 16 15 16 16 16 17 17 16 16 16 16 16 17 17 17 17 17 17 16 16 16 16 15 14 14 14 14 14 14 14 14 14 14 14 14
10 9 7 6 10 14 21 19 17 17 16 17 18 19 18 16 16 16 17 19 19 17 17 18 17 17 17 18 18 18 18 17 17 17 17 17 16 15 15 15 15 15 15 15 15 15 16 16 16
9 8 5 6 12 16 20 19 17 19 18 19 19 19 18 17 17 17 18 19 20 19 18 19 19 19 19 19 20 20 19 19 18 19 19 18 18 17 17 16 16 16 16 16 16 16 16 17 17
9 8 8 13 18 19 20 19 18 18 19 20 20 18 17 17 17 18 19 20 20 20 20 18 19 20 20 20 21 21 20 20 21 21 21 20 20 19 18 18 18 18 18 17 18 18 18 18 18
11 11 14 17 19 19 18 18 17 18 20 21 20 20 18 18 18 19 20 21 22 21 20 20 20 21 21 21 22 21 21 22 22 23 23 22 22 21 20 20 19 19 18 18 19 19 19 19 18
13 14 16 17 18 18 18 18 19 19 19 21 22 22 20 18 19 20 20 21 22 22 21 22 21 22 23 22 22 22 22 23 23 24 24 24 24 23 22 21 21 20 20 19 19 19 20 20 20
13 15 16 17 18 18 19 19 20 20 20 21 23 24 22 20 21 22 22 22 22 21 22 22 23 23 24 23 23 24 25 24 24 25 25 25 25 24 23 22 23 22 21 21 20 20 20 20 20
14 16 17 18 19 19 20 20 21 20 20 22 23 25 24 23 23 23 23 23 22 22 22 23 23 24 24 24 24 25 26 26 26 26 26 26 26 25 24 24 24 24 23 23 22 21 20 20 21
14 15 17 18 19 20 20 19 20 19 21 22 24 25 25 25 24 24 23 23 23 23 23 23 24 25 24 24 26 26 27 27 28 27 26 27 27 27 27 25 25 24 24 23 23 22 21 22 22
14 15 15 16 18 20 21 20 20 21 22 23 25 25 26 26 24 24 25 25 24 24 24 25 26 26 26 26 26 26 28 28 29 28 28 28 28 27 27 26 25 25 24 24 24 23 23 23 23
12 14 14 15 17 20 21 21 20 22 23 24 25 25 26 26 25 25 25 25 25 25 26 26 27 26 26 26 27 27 28 29 29 29 29 28 28 28 27 26 26 25 25 24 24 24 25 25 25
12 14 15 16 18 20 21 22 21 22 22 24 27 27 27 27 27 27 25 26 26 27 27 27 27 27 27 28 28 29 29 29 29 29 28 27 27 28 27 26 26 27 26 25 26 26 26 26 27
14 14 14 16 19 22 23 22 23 24 24 26 29 28 28 27 28 28 27 27 27 27 28 28 28 28 29 30 30 30 29 30 30 29 28 28 28 28 27 27 26 26 27 27 27 27 27 27 28
15 16 17 18 20 24 24 23 23 25 25 26 28 28 28 27 27 28 28 27 27 26 28 29 29 30 31 31 31 30 30 29 29 29 28 28 28 29 28 27 26 27 27 27 26 27 27 27 27
16 16 18 20 21 22 23 22 23 25 25 26 26 27 28 28 29 29 29 29 28 28 29 29 30 30 30 31 30 30 30 29 29 29 28 28 28 28 29 28 27 27 28 27 27 27 27 27 27
16 17 18 20 21 21 22 24 23 24 26 28 25 25 27 28 29 30 30 30 29 27 28 29 30 30 30 30 30 30 29 29 29 30 29 29 28 28 28 28 28 27 27 27 28 28 28 28 28
16 17 18 20 21 21 21 24 24 23 26 27 25 25 28 29 29 31 30 29 29 29 28 29 29 30 30 30 30 30 30 30 30 29 29 28 28 27 28 28 28 28 27 27 27 28 28 29 29
18 19 19 19 20 21 20 23 23 22 24 27 28 27 27 28 29 30 30 29 28 28 27 27 28 29 29 30 31 31 31 30 29 29 28 27 27 27 28 28 28 28 28 27 27 28 28 28 28
18 18 19 19 19 19 19 23 23 23 22 25 27 28 28 28 29 29 29 29 28 28 28 27 27 28 28 29 30 31 30 30 28 28 28 27 27 27 27 27 28 28 28 28 27 27 27 27 27
17 18 19 21 20 19 19 21 23 23 23 24 26 27 29 28 28 28 28 28 27 26 26 26 26 27 27 28 28 29 29 30 29 28 28 27 27 27 27 27 27 27 27 27 27 26 26 26 26
18 18 19 22 22 22 21 20 22 24 25 24 24 26 28 28 27 27 26 27 27 26 26 26 26 27 27 27 28 28 29 28 28 27 27 26 26 26 26 26 26 26 27 27 26 26 26 26 26
19 19 20 21 23 23 21 21 25 25 25 25 22 24 27 28 26 26 25 25 25 25 26 26 27 27 27 27 27 28 28 27 26 25 25 24 25 25 25 26 25 26 26 26 25 25 25 25 25
19 19 19 21 22 23 25 25 25 25 25 26 25 24 26 26 25 25 24 24 25 25 25 25 27 28 28 27 27 27 27 27 25 24 24 24 25 25 25 25 25 25 25 24 24 25 25 24 24
19 19 20 21 22 22 26 28 28 27 25 25 26 26 26 25 24 23 22 23 24 24 24 25 26 26 26 26 27 28 28 27 26 25 25 25 25 25 25 25 24 24 23 23 22 23 24 24 24

GEFSSGP_500_meanwind_162.txt.gz
Wind_Speed
12 11 10 9 8 7 5 4 3 3 4 6 8 9 10 9 8 8 9 10 10 10 10 9 10 10 9 9 9 10 11 11 11 12 12 13 13 13 13 13 13 13 12 12 11 11 10 10 9
12 11 11 10 8 8 6 4 4 5 7 8 10 11 10 10 9 9 10 10 11 11 10 10 11 10 10 10 10 11 12 12 12 12 13 13 13 13 13 13 13 13 13 12 12 12 11 11 11
12 11 11 10 9 8 6 6 6 8 9 10 11 12 12 12 11 11 11 11 11 11 11 11 12 11 11 12 12 12 12 13 13 13 14 14 14 14 14 14 14 14 13 13 13 13 13 12 12
12 10 10 10 8 7 6 6 5 9 13 13 13 15 14 13 13 12 13 13 13 13 13 13 13 13 13 13 13 13 13 13 14 14 14 14 15 15 15 15 15 15 14 14 14 14 14 13 13
11 10 10 10 8 8 9 8 8 11 15 16 16 16 16 15 14 13 13 14 14 14 14 14 14 14 14 14 14 15 15 15 15 15 15 15 16 16 16 16 16 15 15 15 15 15 15 15 14
11 10 10 10 9 10 10 9 10 13 16 17 17 18 18 17 16 15 13 14 14 15 16 16 16 15 15 15 15 16 16 16 16 16 16 16 16 16 16 16 16 16 16 15 16 16 16 16 15
11 11 12 11 11 11 10 10 12 15 18 18 19 20 19 17 17 16 14 14 16 16 17 17 17 16 16 16 16 17 17 17 17 17 17 17 17 17 17 17 17 17 16 16 16 16 17 17 17
12 11 12 12 12 11 11 12 14 16 19 21 22 22 20 19 19 17 16 16 16 16 18 17 17 17 17 17 17 18 18 18 18 18 18 17 17 18 18 17 18 18 18 17 17 18 18 18 18
12 12 13 14 14 12 11 13 15 17 20 22 23 22 22 22 21 20 18 17 17 17 17 18 18 18 19 19 19 19 19 19 19 19 19 19 18 18 19 19 19 19 19 19 19 19 19 19 19
13 13 14 14 15 13 13 14 15 17 20 22 24 24 24 24 21 21 20 18 17 17 17 18 19 20 20 20 20 20 20 20 20 20 20 20 20 20 20 20 20 20 20 21 20 20 20 20 20
13 14 15 14 15 15 15 16 17 19 20 22 24 24 23 23 22 22 22 20 18 18 18 18 20 21 21 21 21 21 21 21 20 20 20 20 20 20 21 22 22 21 21 21 21 22 22 21 21
15 15 16 16 16 17 17 18 19 20 23 23 24 23 22 23 23 22 22 21 20 20 20 20 20 21 21 22 21 21 22 22 21 21 20 20 21 21 22 22 22 22 22 22 22 22 22 22 22
15 15 16 16 16 16 17 17 20 21 23 23 25 25 25 24 23 22 24 24 23 22 22 22 23 22 22 22 22 22 22 22 22 22 22 22 21 22 22 23 23 22 23 23 22 22 22 23 23
14 15 14 15 15 16 17 16 19 20 21 21 22 24 24 23 23 24 24 25 25 24 24 24 24 22 23 23 23 23 23 23 23 22 22 22 23 23 22 24 23 23 23 23 23 23 22 23 23
13 13 14 15 16 15 17 17 17 17 19 20 21 23 23 23 23 24 24 25 26 25 25 25 25 24 24 24 23 23 24 24 24 24 23 24 23 23 23 24 24 24 24 24 23 23 23 23 23
12 13 13 14 16 16 17 17 16 18 20 21 22 23 24 24 24 24 26 26 25 25 26 26 26 26 25 25 25 24 24 24 24 24 24 24 24 24 24 24 25 26 25 24 24 24 24 24 24
12 13 14 14 16 16 18 18 19 20 21 21 22 24 25 24 25 25 26 24 25 26 27 28 27 25 27 27 26 26 26 26 25 25 25 25 25 25 25 25 25 25 24 25 25 25 24 24 24
13 14 15 15 15 18 19 20 21 22 22 22 23 23 23 24 25 25 26 27 28 27 28 28 28 27 27 27 27 27 27 27 26 25 25 25 25 25 26 26 26 25 25 25 25 25 25 25 25
13 15 15 15 16 18 19 20 21 22 23 23 23 23 24 25 26 26 27 27 27 27 28 29 30 29 29 30 29 29 29 28 27 26 26 26 25 25 25 25 25 26 26 26 25 25 25 25 26
14 14 15 15 16 18 19 19 21 22 24 24 24 24 25 26 26 26 26 26 27 28 29 29 30 30 30 30 30 29 29 28 27 27 27 27 26 26 25 24 25 25 25 25 26 26 26 26 26
14 16 17 17 18 19 21 21 22 22 23 24 24 25 26 26 26 26 25 26 26 27 28 29 29 30 30 30 28 28 28 28 28 28 28 28 27 27 26 26 26 26 25 26 26 26 26 26 26
15 16 17 18 19 20 22 23 22 23 24 24 24 25 27 26 26 25 25 26 27 27 28 28 28 28 29 29 29 28 28 28 27 28 27 27 27 26 26 25 25 26 26 25 25 26 26 26 26
16 16 17 19 20 21 22 24 23 23 23 24 25 26 25 25 24 23 25 27 28 28 28 28 27 26 26 27 27 28 28 28 27 27 26 27 26 25 25 24 24 24 24 24 25 25 25 25 26
17 18 19 20 21 21 21 24 22 23 23 24 25 25 25 24 23 25 26 27 28 29 29 28 27 26 26 26 26 27 27 27 27 26 26 27 25 24 22 22 22 23 23 24 24 25 24 24 25
19 21 22 21 21 20 21 23 22 22 22 23 24 24 24 24 25 26 27 27 27 28 29 28 28 27 26 27 26 26 26 27 26 26 25 25 24 23 22 22 23 24 24 24 24 25 25 26 26
21 22 23 24 23 22 22 23 22 22 22 23 24 24 23 25 25 25 26 27 27 28 29 29 27 27 26 26 26 26 27 26 26 25 25 24 24 24 23 23 23 23 23 23 24 24 25 25 26
21 22 23 25 25 25 24 23 22 22 22 23 24 24 24 25 25 24 24 25 26 27 28 27 26 26 25 24 24 25 25 25 24 23 24 24 24 23 23 23 23 23 23 23 23 23 23 24 24
22 23 24 25 26 26 24 24 24 24 23 23 23 23 24 24 24 25 24 24 26 27 26 26 26 24 23 22 22 23 23 23 22 21 21 21 21 21 21 22 22 22 22 22 22 21 21 21 22
21 22 23 24 25 26 27 25 24 25 25 25 26 25 24 24 24 23 24 24 25 25 25 25 24 23 21 21 21 21 21 21 21 21 21 21 21 21 21 21 22 22 21 21 21 21 21 21 22
22 22 23 25 26 27 28 27 25 25 25 25 25 26 25 23 23 23 24 23 24 24 23 23 22 21 21 20 20 20 21 20 20 20 19 19 20 20 20 20 21 21 21 21 21 20 21 22 21

GEFSSGP_500_meanwind_168.txt.gz
Wind_Speed
9 8 8 7 6 5 2 1 2 3 4 5 6 7 8 9 10 11 11 11 11 12 12 13 12 12 12 12 11 11 11 11 11 11 11 11 11 11 12 12 12 13 13 13 13 13 12 12 11
10 9 9 8 7 6 4 3 3 4 5 5 6 7 8 10 11 12 12 12 13 13 13 14 13 13 13 13 12 12 12 12 12 12 12 12 12 12 13 13 13 13 14 14 14 14 13 13 12
11 10 10 8 7 6 5 5 5 6 6 7 7 9 10 11 13 14 14 14 13 14 14 15 15 14 14 14 13 13 13 13 13 13 13 13 13 13 13 13 14 14 14 15 14 14 14 14 13
11 10 10 9 8 8 7 7 7 7 8 8 9 10 12 13 15 15 16 16 16 16 16 16 16 15 15 15 14 14 14 14 14 14 14 14 14 14 14 14 15 15 15 15 15 15 15 15 14
11 11 11 10 9 9 9 9 9 9 10 10 10 12 13 15 16 17 17 18 18 18 18 17 17 16 15 15 15 15 15 15 15 15 15 15 15 15 15 15 15 15 16 16 16 16 16 16 16
12 11 11 10 10 10 10 11 11 11 12 12 12 13 14 15 16 17 17 17 18 19 18 18 18 17 16 16 16 16 16 16 16 16 16 16 17 17 16 17 17 17 17 17 17 17 17 17 17
12 11 11 11 11 11 12 12 12 13 14 14 13 14 15 16 17 18 17 18 19 19 19 18 19 19 18 17 17 17 17 17 17 17 17 18 18 18 17 18 18 18 18 18 18 18 18 18 17
12 12 12 12 12 12 13 13 14 14 14 15 15 15 17 18 19 19 19 19 20 20 19 19 19 19 18 18 18 18 18 18 18 18 18 18 19 19 19 19 20 19 18 19 19 19 19 19 18
12 13 13 14 14 14 15 15 16 17 16 16 17 18 19 20 21 21 21 21 21 21 19 19 19 19 19 19 19 19 19 19 19 19 20 19 20 20 20 21 21 21 20 20 20 21 21 20 20
13 14 14 15 16 16 17 18 18 18 18 19 20 20 21 21 22 22 21 21 21 20 19 19 20 19 19 19 19 20 20 21 21 21 21 21 21 22 22 22 22 22 22 22 22 22 22 22 21
14 14 15 16 16 18 18 19 20 20 19 20 21 21 21 22 21 21 21 21 20 20 20 20 20 20 20 20 20 20 21 22 22 22 22 22 22 22 23 23 23 23 23 23 23 23 23 22 22
14 15 16 17 17 18 18 20 21 22 22 22 22 22 21 22 22 23 21 21 21 21 21 21 21 21 21 21 21 21 22 22 24 24 24 24 24 23 23 24 24 24 24 24 24 24 24 23 23
14 15 16 17 18 19 20 21 22 22 23 23 23 22 22 22 23 22 22 22 21 22 22 22 22 22 22 22 22 23 23 24 25 25 25 25 25 24 24 24 24 24 25 25 25 25 25 25 25
15 15 16 17 19 20 20 21 22 22 23 23 23 23 23 23 23 23 23 22 21 22 22 22 22 22 22 23 24 23 24 25 25 25 26 26 26 25 24 24 24 24 25 25 25 26 26 26 26
15 16 17 18 19 20 21 21 22 22 23 23 24 23 24 24 23 23 23 22 21 21 21 22 23 23 23 24 25 25 25 26 26 27 27 27 27 26 25 24 24 25 26 26 27 27 27 28 27
16 17 18 19 20 21 22 21 21 22 23 23 23 23 23 24 24 23 23 22 22 22 22 23 24 24 25 25 26 27 27 27 27 27 26 26 27 27 26 26 26 26 26 26 26 26 28 29 28
16 18 19 20 21 22 22 22 22 23 23 22 22 22 23 23 23 24 24 23 23 23 23 24 24 25 26 26 26 27 28 29 29 28 27 27 27 27 27 27 27 26 26 26 27 27 28 28 29
17 19 20 21 21 22 22 23 23 23 23 23 23 23 23 23 23 23 24 25 24 24 24 24 24 25 26 27 28 28 28 28 28 28 28 28 27 28 28 28 27 27 27 27 28 28 28 29 29
18 19 21 21 22 22 23 22 22 23 24 24 24 24 23 23 24 23 24 24 24 25 25 25 25 26 26 27 28 28 28 27 28 29 29 28 28 28 28 28 28 28 28 28 28 28 29 30 31
19 20 21 21 22 23 22 22 23 24 24 24 24 24 24 24 24 24 24 24 25 25 25 25 26 26 27 27 28 28 28 27 28 28 27 27 27 28 29 29 29 28 29 28 29 29 30 31 31
19 21 21 22 22 22 23 23 23 24 23 24 24 23 23 23 23 24 24 25 24 24 25 26 27 27 27 28 28 28 27 27 27 27 27 27 28 28 29 30 30 30 29 28 28 29 28 28 28
20 21 22 22 23 23 24 24 22 22 22 23 23 23 24 24 24 25 25 25 25 26 26 27 27 27 27 29 28 28 28 28 27 27 26 27 28 28 27 27 28 28 28 28 28 27 27 28 27
21 21 23 23 24 24 24 25 24 23 23 22 22 23 24 24 24 24 25 26 26 27 27 27 27 27 28 28 28 28 28 28 27 26 27 27 27 27 26 27 27 27 27 28 27 26 27 27 27
22 22 23 23 24 24 24 26 25 24 23 23 23 23 24 24 24 25 25 26 27 27 27 28 28 28 28 28 29 28 28 28 27 26 27 26 26 26 26 27 27 27 26 26 25 25 26 26 27
22 24 25 25 25 25 25 26 25 24 24 24 24 25 25 26 25 26 26 27 28 28 28 29 29 28 28 28 29 28 28 27 26 26 27 26 25 25 26 28 27 27 26 25 24 24 25 26 26
23 24 25 27 27 26 26 26 25 26 25 25 24 25 26 26 26 26 27 27 27 28 27 28 28 28 27 27 27 26 26 26 26 25 25 25 24 24 25 26 25 25 25 25 25 25 25 25 25
24 25 26 28 29 29 27 25 24 25 26 25 25 25 27 26 26 26 26 27 27 27 26 26 26 26 26 25 25 25 25 25 24 24 24 24 23 23 23 23 23 23 24 24 25 25 25 25 25
25 26 27 28 30 30 28 27 26 26 25 25 25 25 25 25 24 24 25 26 26 25 25 24 24 23 24 24 24 24 24 24 23 23 23 23 21 21 21 20 21 22 23 24 24 25 25 24 24
27 27 28 29 29 30 31 29 28 27 26 26 26 25 25 25 24 24 24 24 24 25 24 23 22 21 22 22 23 24 24 24 23 22 21 22 21 20 19 20 20 20 21 22 22 23 23 23 23
28 28 28 29 30 31 33 32 29 29 28 27 27 26 26 25 25 24 24 23 24 24 24 23 22 22 22 22 21 21 22 21 20 20 20 20 19 18 19 19 19 19 20 21 21 21 21 22 22

GEFSSGP_500_meanwind_174.txt.gz
Wind_Speed
8 7 6 5 3 2 2 1 1 1 2 2 3 4 5 6 6 7 8 8 9 10 11 12 12 12 12 12 12 12 12 12 12 11 10 10 9 9 9 8 8 8 8 8 8 8 8 8 8
8 7 6 4 3 2 3 3 2 2 3 4 5 6 7 7 7 8 9 10 11 11 12 14 14 14 13 13 13 13 13 13 13 12 11 10 10 10 10 9 9 10 10 10 10 9 9 9 9
8 6 5 4 4 5 4 3 3 4 5 6 7 8 9 9 9 10 11 12 12 13 15 15 15 15 15 15 15 14 14 14 13 13 12 11 11 11 11 11 11 11 11 11 11 11 10 10 10
8 7 6 5 6 6 5 4 4 6 7 7 8 9 10 10 11 12 12 13 14 14 16 17 16 16 15 16 16 16 15 15 14 14 14 13 13 13 12 12 12 12 12 12 12 12 11 11 11
8 7 6 6 7 7 6 5 6 7 8 9 10 11 12 12 13 14 14 14 15 16 17 17 17 16 16 16 17 17 17 16 16 16 15 15 15 14 14 14 14 14 13 13 13 13 13 12 12
7 6 7 7 8 8 7 7 8 10 10 11 12 13 13 14 15 15 15 16 17 18 18 17 17 16 16 17 17 16 16 17 17 17 17 17 16 16 16 16 16 15 15 15 15 14 14 14 14
7 6 7 7 8 8 9 9 10 11 11 13 14 14 15 15 16 16 17 18 19 19 19 18 17 17 17 17 17 18 18 18 18 18 18 18 18 18 17 17 17 17 17 16 16 16 16 15 15
6 6 7 7 8 10 10 11 12 13 14 15 15 16 16 16 17 17 18 18 19 20 19 18 17 18 18 18 18 19 19 19 19 19 19 19 19 19 19 18 18 19 19 18 18 18 17 16 17
6 6 7 8 9 11 12 12 13 14 16 16 16 18 18 18 18 19 19 19 20 20 19 19 19 19 19 19 19 20 20 20 20 21 21 20 20 20 20 19 19 20 20 20 20 20 19 19 18
7 7 9 9 10 11 13 13 14 15 17 17 17 19 19 19 19 19 20 20 20 20 20 20 20 20 20 20 20 21 21 22 22 22 22 22 22 21 21 21 21 21 22 22 22 22 21 21 20
8 9 9 11 12 12 13 14 15 16 17 18 19 19 19 20 20 20 20 20 20 20 20 20 21 21 21 21 21 22 22 23 23 24 23 23 23 23 23 23 23 23 24 24 24 23 22 21 21
9 9 10 12 12 13 15 16 16 17 18 19 20 20 20 21 21 21 20 20 21 21 21 22 22 22 22 22 22 23 23 23 23 23 24 24 24 24 24 24 24 24 25 25 25 24 23 23 22
10 11 12 13 14 15 16 17 17 18 19 19 20 20 20 21 22 22 22 22 22 23 23 23 23 23 22 22 23 23 23 24 24 24 24 25 26 26 26 26 26 26 26 26 25 25 24 24 24
11 12 13 14 15 17 18 18 19 19 20 20 20 20 20 21 22 22 22 22 23 23 23 23 24 23 23 23 23 24 24 25 25 26 26 26 26 26 26 27 27 27 26 26 26 26 26 26 26
12 13 14 16 17 18 19 19 20 21 21 21 21 21 21 22 23 23 23 23 24 23 24 24 24 24 24 24 25 25 25 25 26 27 27 27 27 27 27 27 27 27 27 28 27 27 27 27 27
13 13 15 16 17 18 19 20 21 22 22 22 22 22 22 22 23 23 24 24 25 24 24 25 25 25 26 26 26 27 27 27 27 27 27 28 29 29 29 29 28 28 28 29 29 29 29 28 28
13 14 15 17 18 20 21 22 23 23 23 23 22 22 23 23 23 24 24 25 25 25 25 26 26 26 27 27 27 27 28 28 27 28 29 29 30 30 30 30 30 30 30 30 30 30 29 28 28
14 15 17 18 20 21 22 22 23 24 24 24 23 23 23 23 24 25 25 25 25 25 25 26 27 27 27 27 28 27 28 28 28 29 29 29 30 30 30 30 30 30 31 31 31 31 30 29 29
16 17 18 19 21 21 22 22 23 24 23 24 25 25 24 25 25 26 26 25 25 26 26 27 27 27 27 27 28 28 29 28 29 30 29 29 29 30 29 30 30 30 30 31 32 32 31 30 30
17 18 19 21 21 22 22 22 23 23 24 24 24 24 25 25 25 26 25 25 25 26 26 26 27 27 28 28 29 29 29 29 30 30 29 30 29 28 29 29 30 31 30 31 31 31 31 31 31
18 19 20 21 22 22 23 23 23 24 25 25 24 24 24 24 24 25 25 25 25 26 26 26 27 27 28 29 29 30 29 30 29 30 31 29 29 28 29 29 30 30 30 30 30 30 31 30 31
19 20 20 20 20 21 22 22 23 23 24 24 24 24 24 24 25 25 25 25 25 26 27 27 27 27 28 29 30 31 30 29 29 30 30 29 28 28 28 28 29 29 30 30 30 30 30 30 30
19 20 20 20 21 21 22 22 23 23 23 24 24 24 24 25 25 25 26 25 25 25 26 26 27 28 29 29 29 30 29 29 28 29 28 28 27 27 27 27 28 28 29 29 29 29 29 30 30
20 20 21 21 21 22 22 22 23 24 25 24 24 25 25 25 25 25 26 26 26 26 27 27 28 28 29 29 29 29 28 28 27 27 26 26 26 26 26 26 27 27 28 28 28 29 29 30 30
21 21 21 21 21 22 23 24 24 26 26 25 25 25 26 25 25 26 26 27 27 27 28 28 28 29 29 28 28 27 27 26 26 26 25 25 25 26 25 25 26 26 25 25 26 26 27 28 28
22 22 22 23 24 25 25 24 24 26 26 25 26 26 27 26 26 26 26 26 27 27 27 27 28 27 27 27 27 27 26 25 25 25 24 24 24 24 23 24 23 24 24 24 25 26 26 26 27
23 24 24 25 26 26 25 25 24 26 27 27 26 26 27 27 26 25 25 25 26 26 26 26 26 26 27 26 26 25 23 23 23 23 23 23 23 22 22 23 22 22 22 22 22 23 24 24 25
25 26 26 26 26 26 26 26 27 28 29 28 27 27 27 27 26 25 25 25 25 24 24 25 25 25 25 24 24 23 22 21 22 22 21 21 21 21 21 21 22 22 21 21 22 23 23 23 23
26 27 27 27 26 26 27 27 27 28 28 29 28 27 27 27 27 26 25 26 25 24 24 24 24 25 24 24 24 22 21 21 20 20 19 19 20 20 20 20 20 20 19 19 20 20 20 20 21
27 27 27 27 27 27 27 30 29 29 29 29 28 27 26 26 26 26 26 26 25 24 23 23 23 23 23 23 22 21 20 20 19 18 17 17 17 18 18 18 18 18 17 17 16 17 18 19 19

GEFSSGP_500_meanwind_180.txt.gz
Wind_Speed
9 8 7 7 6 8 5 3 4 3 5 5 6 6 7 8 9 10 11 12 12 12 12 13 13 13 14 15 15 15 14 14 14 14 13 13 13 12 12 12 12 11 11 11 11 11 10 10 10
9 8 7 6 6 4 2 2 5 6 7 7 7 7 8 10 10 11 13 13 14 13 13 14 14 15 15 16 16 16 16 16 16 15 15 14 14 13 13 13 13 13 12 12 12 12 11 11 11
9 8 7 6 4 1 1 4 5 6 8 8 9 9 10 11 12 13 14 14 15 14 14 15 15 16 16 17 17 17 17 18 18 17 17 16 15 15 15 15 14 14 14 13 13 13 13 12 12
9 8 7 6 3 1 5 7 7 7 8 9 10 11 12 12 14 15 15 16 16 15 14 16 16 16 17 17 18 18 18 18 19 19 18 18 17 16 16 16 16 15 15 15 14 14 14 14 14
9 7 6 5 1 5 8 8 7 7 8 9 11 14 15 14 15 16 16 17 17 16 16 17 17 17 18 18 19 19 19 19 19 19 19 19 19 18 18 18 17 17 16 16 16 15 15 15 15
8 6 4 2 2 9 11 11 8 8 9 10 11 15 16 15 16 17 17 17 18 18 18 18 18 19 19 19 20 20 20 20 20 20 20 20 19 19 19 19 19 19 18 18 17 17 17 17 16
8 5 3 2 4 9 13 13 12 10 11 12 13 15 17 17 16 17 18 18 20 19 19 19 19 20 20 20 21 21 21 21 21 21 22 22 21 20 20 20 21 20 20 19 19 18 18 18 18
6 4 3 3 5 9 14 14 13 14 13 14 15 16 18 19 18 18 18 19 20 20 20 20 20 20 21 21 22 22 22 22 22 22 22 22 22 22 21 21 21 21 21 21 20 20 19 19 19
5 3 4 7 9 11 13 14 15 14 16 16 16 17 20 19 19 19 19 20 20 21 21 21 21 22 22 22 23 23 23 23 23 23 23 23 23 23 23 22 22 23 23 22 22 21 21 20 20
5 5 7 9 11 13 13 15 15 14 15 17 17 19 19 19 19 19 20 21 21 21 22 22 22 23 24 24 24 24 24 23 23 23 23 24 24 24 24 24 23 23 23 23 23 22 23 22 22
7 8 8 9 12 13 13 15 16 16 16 17 18 19 20 21 21 21 22 22 22 22 23 23 23 24 24 25 24 25 25 25 24 24 24 24 25 24 24 24 24 23 23 22 23 23 23 23 23
6 8 9 11 12 14 15 15 16 17 18 18 18 20 22 22 21 22 22 23 22 23 24 24 24 25 25 25 26 26 26 26 26 26 25 26 25 25 25 24 24 24 24 24 24 23 24 24 24
6 9 10 12 14 14 15 16 17 16 17 18 19 21 23 23 24 24 24 23 23 24 24 25 26 26 27 26 27 27 27 27 27 28 26 26 27 26 25 25 24 25 25 26 25 24 24 24 24
7 9 11 12 14 14 16 17 18 16 18 19 20 22 23 24 25 25 24 24 24 25 25 26 27 27 28 28 28 28 28 28 27 27 27 28 27 27 27 26 26 26 27 27 26 26 25 25 26
7 9 11 12 14 16 18 19 18 18 20 22 22 23 24 24 25 25 24 25 25 25 26 27 28 28 28 28 28 28 28 28 27 28 29 29 29 28 28 28 28 28 28 28 28 27 27 27 26
7 10 12 15 17 19 19 19 19 20 22 23 23 24 24 24 26 26 26 26 27 27 27 28 29 29 28 28 28 28 28 29 29 29 29 29 29 29 29 28 28 29 29 29 28 27 28 28 27
9 12 14 17 18 20 20 21 22 23 21 24 25 25 25 26 27 27 28 28 28 28 28 28 29 29 29 28 28 28 29 29 30 30 29 29 30 30 29 29 29 29 29 28 28 27 28 29 28
13 14 15 16 18 20 22 23 23 24 22 23 26 27 28 28 27 27 28 28 28 28 28 28 28 29 29 29 28 28 29 30 30 31 30 31 31 30 30 30 30 29 29 29 28 28 28 28 28
15 15 15 17 18 20 22 24 24 23 23 24 26 28 28 28 27 26 28 29 29 28 29 28 29 29 29 29 29 28 28 30 30 31 30 31 32 31 30 30 30 29 29 29 29 29 29 28 28
16 18 18 19 19 20 22 23 23 22 24 26 27 28 27 27 28 27 28 29 29 29 29 29 29 30 30 30 29 28 29 30 31 31 31 31 31 31 31 31 30 29 29 28 29 29 29 29 29
17 17 19 20 20 20 21 20 21 23 25 27 28 28 27 28 29 30 30 30 30 29 29 29 29 30 30 30 30 30 30 31 31 30 30 30 31 31 30 30 29 28 28 28 29 29 29 29 29
18 19 20 20 21 19 17 19 22 25 27 28 29 29 28 30 31 31 31 31 30 30 30 29 30 30 30 30 30 30 30 30 30 30 30 30 30 30 29 29 28 28 28 28 28 29 29 29 28
18 19 20 20 20 17 16 17 23 26 28 29 29 28 30 31 30 30 30 31 31 30 30 30 29 29 29 30 30 29 29 29 30 29 29 28 28 27 27 26 27 27 26 27 27 28 28 27 27
20 21 20 18 18 17 17 19 25 27 29 30 30 29 31 31 31 30 31 31 32 31 30 30 29 29 29 29 29 28 28 29 28 28 27 26 26 26 25 25 25 25 25 25 26 27 26 26 26
19 20 20 19 18 19 20 21 25 27 30 31 31 31 32 34 33 32 31 31 32 30 29 29 29 29 28 28 28 28 28 28 28 27 25 25 25 25 25 24 24 24 24 25 26 26 25 24 24
20 21 21 22 22 22 19 21 25 27 29 33 33 33 34 33 33 33 31 31 31 29 28 29 28 28 27 27 28 28 27 27 25 24 24 24 25 24 24 23 23 23 23 24 24 24 23 23 24
21 21 20 21 21 21 19 21 25 26 27 31 32 32 33 31 30 31 31 31 31 30 30 29 28 26 26 27 27 26 26 25 24 23 23 23 24 24 23 23 23 23 22 23 23 23 22 22 22
21 20 20 21 21 21 20 22 25 26 28 29 30 31 31 31 30 30 30 31 30 29 29 28 27 26 25 26 25 24 23 23 23 22 22 22 23 22 22 21 21 21 21 22 22 22 22 22 22
21 19 19 21 21 22 23 25 26 28 29 30 31 31 31 32 31 30 30 30 29 28 27 27 26 26 26 25 24 23 22 21 22 21 22 22 21 21 21 19 19 19 20 20 21 21 21 20 20
21 21 22 22 23 23 26 27 28 29 31 31 31 31 31 30 30 30 29 28 27 27 26 25 25 25 25 24 23 23 22 21 21 21 21 21 21 20 19 18 18 18 19 19 19 19 19 19 19

GEFSSGP_500_meanwind_186.txt.gz
Wind_Speed
11 10 9 7 6 5 4 4 4 4 4 5 7 8 9 10 11 11 11 11 11 12 12 12 12 12 12 11 12 12 12 13 14 14 15 15 15 15 15 15 15 16 16 15 14 14 14 14 14
12 10 8 7 5 4 3 2 3 5 6 8 9 9 10 11 11 12 12 12 12 12 13 13 12 13 13 13 13 13 13 13 14 15 15 15 15 16 16 16 16 16 16 16 16 16 15 15 15
12 10 8 6 4 3 2 2 4 7 8 10 11 11 12 12 13 14 13 13 13 13 13 13 13 13 13 13 13 14 14 14 14 15 15 16 16 17 17 17 17 17 17 17 17 17 16 16 16
12 10 8 6 4 2 2 4 6 8 9 12 12 13 13 13 14 15 13 13 14 14 14 14 14 14 13 14 14 14 14 15 15 15 16 16 17 17 17 18 18 18 18 18 18 17 17 17 17
12 11 9 6 3 1 3 5 6 9 10 11 13 14 14 14 15 16 15 15 15 15 15 15 15 15 14 15 15 15 15 15 16 17 17 17 17 17 18 18 18 19 19 19 18 18 18 18 18
12 11 9 5 3 4 4 5 7 9 12 13 14 16 16 15 15 16 15 15 15 15 15 15 16 16 16 16 16 16 17 17 17 18 18 18 18 18 19 19 19 20 20 20 19 19 19 19 19
11 10 9 6 4 4 6 6 7 10 13 15 17 18 17 16 16 16 16 15 15 15 16 16 17 17 17 17 17 18 18 18 18 19 19 20 19 19 19 20 20 21 22 21 20 20 20 20 20
10 9 7 7 6 6 7 9 10 10 13 15 17 19 20 18 17 17 17 17 17 17 17 17 18 18 18 18 18 19 19 19 19 20 20 20 20 20 20 21 21 21 22 22 22 22 21 21 20
10 8 7 7 7 7 9 11 12 13 14 15 17 19 20 20 19 18 18 18 18 18 17 17 18 19 18 18 19 19 19 20 20 20 20 20 20 20 21 21 21 21 21 21 22 22 22 21 21
8 7 6 7 8 8 10 12 13 14 14 16 18 19 19 19 19 19 19 19 19 19 19 19 19 20 20 19 20 20 19 20 21 21 21 21 21 20 20 20 20 20 20 20 21 21 22 21 21
6 5 6 7 7 9 11 13 14 15 16 17 18 18 18 18 19 19 19 20 20 20 20 20 20 20 21 22 22 22 22 21 21 21 22 21 21 21 20 21 20 20 20 20 21 21 21 22 22
5 4 4 5 6 9 11 13 14 16 17 17 17 18 18 19 19 21 22 22 22 22 22 22 21 22 22 22 23 23 24 23 22 22 22 22 22 22 22 22 22 22 22 21 21 22 22 23 23
5 4 4 6 8 10 12 14 16 17 17 17 18 19 21 21 21 22 23 23 23 23 23 23 24 24 24 24 24 24 25 24 23 22 22 22 22 22 22 22 22 22 22 22 22 22 22 21 21
4 5 5 7 10 11 13 14 15 17 18 18 19 19 20 22 22 23 24 24 24 24 24 25 25 25 25 25 25 25 25 25 24 24 23 23 23 23 23 23 24 23 23 23 23 23 23 22 22
5 6 7 9 11 13 15 15 17 19 19 19 20 21 21 22 23 24 25 25 25 25 26 26 26 26 26 26 26 26 25 25 24 24 25 25 24 23 23 24 23 23 24 24 23 23 23 23 23
5 6 8 10 13 16 17 18 19 20 21 21 21 21 22 23 23 24 25 25 26 26 27 27 27 27 27 27 27 27 25 25 25 25 25 25 25 24 24 24 24 24 24 24 24 24 24 24 24
7 8 10 12 15 18 19 20 21 21 21 21 21 23 25 25 25 26 26 26 26 27 28 28 27 27 27 28 28 28 26 27 27 26 26 26 26 25 24 24 24 24 24 23 24 24 24 24 24
9 11 13 15 16 18 19 20 22 22 22 22 23 24 26 26 27 27 28 27 27 28 29 30 30 29 28 27 28 28 27 27 27 27 27 26 25 25 25 24 24 24 24 24 23 23 24 24 25
12 13 14 16 17 19 19 21 22 23 24 24 24 26 27 28 29 28 28 28 28 29 30 31 31 30 29 29 28 28 27 26 26 26 27 26 26 25 25 25 25 25 25 25 25 25 24 24 25
14 15 16 17 18 19 20 21 21 23 24 25 26 27 28 28 29 30 29 29 29 30 31 31 31 30 29 29 29 28 27 27 27 27 26 26 25 25 26 25 25 26 25 25 25 25 25 25 24
16 18 18 18 18 19 21 21 21 23 24 25 26 27 28 29 30 30 30 30 30 30 30 31 31 30 30 29 29 29 28 28 27 26 26 26 26 25 25 25 25 25 25 24 25 25 25 25 24
17 18 19 20 19 18 18 20 22 23 24 25 25 26 27 29 30 30 30 29 29 30 30 30 30 30 30 29 28 28 28 27 27 26 25 25 24 25 25 25 24 25 25 25 25 25 24 24 23
18 18 19 19 17 16 17 20 22 23 24 25 25 25 26 27 29 29 30 29 29 30 31 31 30 29 29 29 28 27 26 26 26 25 25 24 24 23 24 24 23 24 24 24 24 24 23 23 23
19 18 18 17 16 15 16 19 20 21 22 23 24 25 27 28 28 29 30 30 30 30 31 31 31 31 30 29 27 26 26 25 25 24 23 23 23 23 23 23 23 22 22 23 23 23 22 23 23
19 20 18 17 16 16 17 19 21 22 24 25 26 27 28 28 29 30 31 30 30 30 30 31 30 30 28 27 26 25 25 25 24 23 22 22 23 23 23 22 22 22 22 22 22 22 22 22 22
20 20 20 20 20 19 19 20 22 22 23 25 26 28 29 29 29 29 30 30 29 29 29 29 29 28 27 25 25 24 25 24 23 23 22 23 23 23 21 21 22 22 21 21 21 21 21 21 21
20 19 19 21 22 22 23 22 22 22 23 24 26 28 28 29 29 29 30 30 30 29 29 28 28 28 26 24 24 23 22 22 22 22 22 22 22 21 20 20 20 20 20 20 19 19 19 20 20
19 19 19 21 22 23 24 24 23 23 24 26 27 27 28 29 29 29 29 29 29 29 29 28 27 25 26 25 24 22 22 22 22 21 20 20 20 20 20 20 19 18 19 19 19 19 20 20 20
18 19 21 22 23 24 25 25 25 24 25 26 26 27 28 28 28 28 29 29 28 28 28 27 26 25 25 24 23 21 20 20 19 20 19 19 19 19 19 19 18 18 18 19 19 19 20 20 20
20 20 21 22 23 24 26 27 25 24 25 26 27 28 28 29 29 29 29 29 28 27 27 26 25 24 24 23 23 21 20 19 19 19 19 19 18 18 18 18 18 17 17 18 18 18 18 19 19

GEFSSGP_500_meanwind_192.txt.gz
Wind_Speed
8 7 6 4 4 2 1 2 3 5 6 7 8 9 10 11 12 12 12 13 14 14 13 13 13 12 12 13 13 12 12 12 11 11 12 12 13 13 14 14 14 14 15 15 14 15 15 14 14
8 7 6 4 3 2 0 2 3 5 6 7 8 9 11 12 12 12 13 14 15 16 14 13 13 13 13 13 14 14 13 13 13 12 13 13 14 14 14 15 15 16 16 16 16 16 16 15 15
9 8 7 5 3 2 1 2 3 5 6 8 9 10 12 12 13 14 14 14 16 16 15 14 14 14 14 14 14 14 14 13 13 13 14 14 15 15 15 16 17 17 17 17 17 17 17 17 16
9 8 7 5 3 2 3 4 4 5 6 8 10 10 12 13 15 16 16 17 17 16 14 14 15 15 15 15 15 15 15 14 14 14 15 15 15 15 16 16 17 17 18 18 18 18 18 18 18
9 8 7 5 4 3 3 5 6 7 8 9 11 11 12 14 15 16 16 17 17 17 16 16 16 16 16 16 15 16 16 16 16 15 15 15 16 16 17 18 18 18 19 19 19 19 19 19 19
10 9 8 6 5 4 5 6 8 8 9 10 12 14 14 15 15 16 16 18 18 18 18 17 17 16 16 16 16 16 16 16 16 16 16 16 17 17 18 18 19 19 20 21 20 19 19 19 19
10 9 8 7 6 5 6 8 9 10 10 12 14 15 15 15 15 15 16 17 18 18 18 18 17 17 17 18 17 17 17 17 18 18 18 18 18 18 18 18 19 19 20 20 20 19 20 19 19
9 9 9 8 6 6 7 8 10 11 11 13 14 15 15 15 16 17 17 18 19 19 18 18 18 18 18 19 19 18 18 18 18 19 19 20 19 19 19 19 20 20 19 20 20 20 21 20 20
9 9 8 7 7 7 7 9 10 11 12 14 15 16 16 17 18 18 19 19 19 19 19 19 19 18 19 19 19 19 19 19 19 20 21 22 21 20 20 20 20 21 21 21 21 21 22 21 21
9 9 8 8 8 8 8 9 11 11 13 15 16 16 16 17 18 19 20 20 20 19 19 20 19 19 19 19 20 20 21 20 20 22 22 23 22 21 21 21 21 21 22 22 22 22 22 22 22
8 8 8 9 9 9 9 10 11 13 14 15 16 17 17 18 19 19 20 20 20 20 20 20 21 21 21 21 21 21 22 22 22 22 23 23 22 22 21 21 22 22 23 23 23 23 23 23 24
8 8 8 9 10 10 11 11 12 13 15 16 16 18 19 19 19 19 19 19 20 21 21 22 22 22 22 23 23 23 23 23 23 23 23 23 23 23 22 22 23 23 23 23 23 23 23 23 23
8 8 9 10 11 12 12 13 14 15 16 17 18 19 20 21 21 20 21 21 22 23 23 23 22 23 23 24 24 24 24 24 23 23 23 23 24 23 23 22 23 23 23 23 23 24 24 23 23
9 9 10 11 12 13 14 14 15 17 18 19 19 20 22 23 23 22 22 23 24 24 24 24 23 23 24 24 24 25 25 25 25 24 23 24 24 23 23 23 24 24 23 23 24 24 23 24 24
9 10 11 12 13 14 15 15 16 18 19 20 20 21 22 23 24 24 24 24 25 26 25 25 24 25 25 26 26 26 25 25 26 26 25 24 24 25 24 25 25 25 25 25 24 23 23 23 24
10 11 12 13 14 15 17 17 18 19 20 21 21 22 23 24 25 25 26 26 26 27 27 26 26 27 26 27 28 27 27 26 27 27 27 26 26 26 25 26 25 25 26 25 24 24 24 24 24
11 12 13 14 15 17 18 19 20 20 20 21 22 24 25 25 26 26 26 27 27 28 27 27 27 27 28 28 27 27 27 27 27 27 28 28 27 27 26 26 26 25 26 25 24 24 24 25 25
13 13 14 16 17 18 18 20 20 20 21 22 23 24 25 25 26 26 26 27 27 27 27 28 29 29 28 28 29 28 28 28 28 28 28 28 27 26 25 26 25 25 25 24 24 24 24 25 25
14 15 16 17 18 19 19 20 20 21 21 22 23 24 25 26 27 27 28 28 28 27 28 28 28 29 30 29 28 28 29 28 28 28 28 28 27 27 26 25 26 25 25 24 25 24 25 25 25
16 17 18 18 20 20 20 20 21 21 22 22 23 25 25 26 27 28 29 29 29 29 29 29 29 30 29 28 28 28 29 29 28 28 28 28 27 27 26 26 26 25 24 24 25 25 25 25 25
17 18 19 21 21 20 21 22 21 22 23 24 25 26 27 27 27 28 28 28 29 29 29 29 29 29 29 28 28 28 30 30 30 30 29 27 27 26 26 26 25 24 24 24 25 25 26 26 26
18 18 20 20 21 21 21 23 22 23 24 25 26 26 27 27 27 27 28 28 29 29 29 29 29 29 29 29 30 29 29 29 29 28 27 27 27 26 24 24 24 24 24 24 24 24 25 26 25
19 19 20 21 21 21 21 23 23 24 24 25 25 26 27 27 28 28 29 29 29 29 29 29 29 28 29 29 29 29 29 28 27 27 27 27 26 25 24 23 23 24 24 24 24 24 25 24 24
20 20 21 21 22 22 22 23 23 23 24 24 25 26 27 28 28 28 29 29 29 29 29 29 29 29 29 29 28 28 28 27 26 26 26 25 24 24 23 23 23 23 23 23 23 24 24 24 24
21 21 22 23 22 22 23 23 23 23 24 25 25 26 27 28 27 28 29 29 29 28 29 29 29 28 28 28 28 27 27 25 24 24 24 22 23 23 22 22 23 23 23 23 24 24 24 24 24
21 22 23 24 24 23 23 23 24 25 25 26 26 27 27 27 27 28 28 29 29 29 29 30 29 29 28 28 27 26 25 24 24 22 22 21 21 21 22 22 22 23 22 23 23 23 24 24 25
22 22 22 23 24 24 23 24 24 24 25 26 26 27 27 27 27 28 28 29 29 30 30 29 29 28 28 29 28 26 25 25 23 21 20 20 20 20 20 21 22 22 22 22 22 21 22 23 24
22 22 22 22 24 24 24 24 23 23 24 25 26 27 27 28 28 28 29 29 29 29 30 29 29 28 27 27 27 26 26 24 22 20 20 19 19 20 21 21 21 21 21 21 20 21 21 22 23
21 21 21 22 23 25 25 23 23 23 24 26 27 27 28 28 27 28 28 29 30 30 29 29 29 28 26 25 25 25 24 23 21 19 19 18 18 20 20 19 20 20 19 19 19 20 20 21 21
20 20 21 21 22 23 24 23 23 24 25 26 27 27 27 27 27 28 29 29 29 29 28 27 27 27 26 24 24 23 21 20 20 20 18 17 18 18 18 18 18 18 18 18 19 20 21 21 21

GEFSSGP_500_meanwind_198.txt.gz
Wind_Speed
4 4 4 3 3 3 2 1 1 3 4 6 7 7 8 9 9 9 10 10 10 10 11 10 10 9 9 9 9 10 10 10 10 10 10 10 10 10 10 10 10 10 10 10 10 10 10 10 11
5 4 3 3 3 2 1 1 2 3 4 6 7 9 9 9 10 10 10 11 11 11 11 11 11 10 10 10 10 11 11 11 11 11 11 11 11 11 11 11 11 11 11 11 11 11 11 11 12
5 4 3 2 2 2 1 2 3 4 5 7 8 9 9 10 11 12 12 12 12 12 12 12 12 11 11 11 12 12 12 11 11 12 12 11 12 12 12 12 12 12 12 12 12 12 12 13 13
5 4 3 2 2 2 2 3 4 5 7 8 9 9 10 10 12 13 13 14 13 13 13 13 13 12 12 12 12 12 12 12 12 12 12 12 12 13 13 13 13 13 13 13 14 13 14 14 14
4 3 3 3 4 4 4 5 6 6 7 8 9 10 11 11 12 13 14 14 14 13 13 13 14 14 13 13 14 13 13 13 13 13 13 13 14 14 14 14 15 15 15 15 15 15 15 15 15
5 4 4 5 6 6 6 7 7 7 9 9 10 11 12 12 13 14 14 15 15 15 15 14 14 14 14 15 14 14 14 14 13 14 14 14 15 15 15 16 16 17 16 16 16 16 16 16 16
6 5 6 7 6 7 7 8 8 8 9 10 11 11 12 13 14 15 15 16 16 16 16 15 15 15 15 15 15 15 15 15 15 15 16 16 16 16 16 16 17 17 17 18 17 17 18 17 17
5 5 6 7 6 7 7 8 8 9 10 11 11 12 13 13 14 15 16 17 17 17 17 16 16 16 16 15 16 16 16 16 16 16 17 17 17 18 18 18 18 18 19 19 19 18 18 18 18
4 5 7 7 6 7 7 8 8 10 11 11 12 13 14 15 15 15 16 17 18 18 19 18 17 17 16 16 17 17 17 18 18 17 18 18 19 19 19 19 19 19 20 20 20 20 19 19 19
5 5 6 6 6 7 8 8 9 10 11 12 13 14 16 16 16 16 17 18 18 19 19 19 18 18 18 18 19 19 19 19 19 19 20 20 20 20 20 20 19 20 20 20 20 21 21 20 20
6 6 7 7 7 8 8 9 10 10 11 13 14 16 17 16 16 18 18 19 19 20 20 20 19 20 20 20 20 20 21 21 21 21 21 21 22 22 21 21 20 20 20 20 20 21 21 21 21
8 7 8 8 8 9 9 9 11 12 13 14 16 17 19 19 19 19 20 21 22 22 22 21 20 20 21 21 21 21 22 22 22 21 22 22 22 22 22 22 21 21 21 21 21 21 22 22 22
8 8 8 8 9 10 10 11 13 14 15 17 18 19 20 21 21 21 22 23 24 24 23 23 23 22 22 22 22 23 23 23 23 23 23 23 23 24 23 22 22 23 23 22 22 23 23 23 23
8 8 9 10 10 11 12 13 14 15 17 18 19 20 20 21 21 22 23 24 25 25 24 23 23 24 24 24 24 24 25 24 24 24 24 24 25 25 24 24 24 23 24 24 23 24 24 23 23
8 8 10 11 12 12 14 15 16 17 18 19 19 19 20 21 22 22 24 25 25 24 24 24 25 26 26 26 25 25 25 24 24 25 25 26 26 26 25 25 24 24 24 24 25 24 24 23 23
8 8 10 12 13 14 15 17 18 19 19 19 19 20 20 21 22 23 23 24 25 25 25 25 25 27 27 27 27 28 28 27 27 26 25 26 26 26 26 25 24 25 24 25 25 24 25 24 24
8 8 11 14 15 16 16 18 20 20 20 20 20 20 20 21 22 23 24 25 26 25 26 26 26 27 28 28 29 29 28 28 28 27 27 26 27 26 27 26 25 25 25 26 26 26 25 24 24
11 11 13 15 17 17 18 19 20 20 20 21 21 20 21 22 23 24 25 26 26 26 26 26 26 27 28 28 28 27 27 27 27 27 26 27 27 27 27 27 26 26 26 26 27 26 26 25 25
12 13 15 17 17 18 18 19 20 20 21 21 21 22 22 24 25 26 26 27 27 27 27 27 27 28 28 28 27 27 27 27 27 27 26 26 26 27 28 27 27 26 26 26 26 26 26 26 26
13 14 16 17 18 18 18 19 20 20 21 21 22 23 24 25 26 26 27 27 27 28 28 28 28 28 29 28 27 26 26 26 27 26 26 26 27 28 27 27 27 27 27 26 25 25 25 25 26
15 16 16 17 18 19 19 20 21 21 22 22 23 23 23 24 25 26 26 27 28 28 29 29 29 30 30 29 28 27 27 27 26 26 26 26 27 27 28 26 26 26 26 26 25 25 25 25 25
15 16 17 18 19 19 19 20 22 22 23 23 23 24 24 25 26 26 27 27 28 28 29 29 29 28 28 28 28 28 27 27 27 27 27 26 26 27 26 26 26 25 25 25 25 25 25 24 25
16 16 17 18 19 19 20 20 21 22 23 23 24 24 25 26 26 26 27 27 28 28 28 28 28 28 27 27 28 27 27 27 27 27 27 26 26 26 25 24 24 25 25 25 25 25 25 25 25
17 17 18 19 19 20 21 21 21 23 23 24 24 25 26 26 27 28 28 28 28 28 28 28 28 27 27 27 27 27 27 26 26 25 25 25 25 24 23 23 23 24 25 25 25 24 25 25 26
18 17 17 18 19 20 23 23 24 24 24 24 25 26 26 26 27 27 28 28 28 28 28 28 27 27 27 27 26 26 26 26 25 25 25 25 24 24 23 22 22 22 22 22 23 23 24 25 25
18 18 18 19 21 21 23 24 24 24 25 25 26 26 27 27 27 27 28 28 29 29 29 28 27 26 26 26 26 26 26 26 25 25 25 24 23 23 22 22 22 21 21 21 22 23 24 24 24
18 18 19 20 22 22 22 25 25 25 26 26 26 27 27 28 28 28 28 29 29 29 29 28 27 27 27 27 27 26 26 25 25 24 24 22 21 21 21 21 20 19 20 21 21 22 22 22 23
18 18 19 19 20 21 22 24 25 26 26 26 26 27 28 28 28 28 28 28 28 28 28 27 28 28 27 27 26 26 25 24 24 23 22 21 20 20 19 20 19 18 19 19 20 20 21 21 22
19 19 19 19 20 21 22 24 26 26 27 27 27 28 28 28 28 28 28 28 28 28 28 27 27 26 26 26 26 26 24 23 23 22 21 20 19 19 19 19 18 18 18 19 20 21 21 21 22
18 19 20 20 20 21 23 25 27 27 28 28 28 28 28 28 28 28 28 28 28 28 27 27 26 26 26 26 25 24 22 22 21 21 20 20 20 20 19 19 19 18 18 19 20 20 21 21 22

GEFSSGP_500_meanwind_204.txt.gz
Wind_Speed
6 6 6 7 8 7 2 0 3 3 4 5 6 7 8 8 8 9 10 10 10 11 11 11 10 11 10 11 11 11 12 12 12 12 12 12 12 12 12 12 11 11 11 11 11 11 11 11 11
6 6 6 7 7 4 2 2 3 5 6 6 7 7 9 9 11 11 11 11 12 12 12 12 11 12 12 12 12 12 12 13 13 13 13 12 13 13 13 13 12 12 12 12 12 12 13 12 13
6 6 6 7 4 2 3 6 6 6 7 8 9 8 8 10 12 13 13 14 14 14 13 13 13 13 13 13 13 13 13 13 14 14 13 13 13 14 14 14 13 13 13 14 14 14 14 13 13
7 7 7 5 1 4 7 9 8 7 8 9 10 10 9 11 12 13 14 15 16 15 15 15 14 14 14 14 14 14 14 14 14 15 15 14 15 15 15 15 14 15 15 15 15 15 15 15 15
7 7 5 1 4 8 10 10 10 9 9 9 10 11 10 12 14 15 16 16 16 17 16 15 15 15 15 15 15 15 16 15 16 16 16 15 16 16 16 16 15 15 16 16 16 16 16 16 16
6 5 1 3 7 10 12 12 11 11 11 11 11 13 13 13 14 15 17 17 17 18 18 16 16 16 16 16 16 17 17 17 17 17 16 16 16 16 16 16 16 16 16 17 17 18 18 18 17
6 5 3 4 8 11 13 13 13 12 13 13 13 14 16 15 15 17 18 19 18 18 18 18 17 17 17 17 17 18 19 18 17 17 17 17 18 17 17 17 17 17 17 17 18 18 19 18 18
6 3 3 4 9 12 12 13 14 15 15 15 14 15 17 17 18 18 19 19 19 19 19 19 19 19 18 18 18 19 19 18 18 18 18 18 19 19 18 18 19 19 18 18 18 18 19 19 19
4 4 4 6 10 11 13 12 14 15 16 16 16 17 17 18 19 19 19 19 19 19 20 20 21 21 20 20 20 20 20 19 19 19 19 19 19 20 19 19 20 20 20 19 19 19 19 20 20
4 7 8 10 10 10 12 13 14 15 17 17 16 16 17 19 20 20 20 19 20 20 21 21 21 21 21 21 22 21 21 21 21 21 20 21 21 21 21 21 21 21 21 20 20 20 20 20 21
7 10 9 9 9 10 10 12 14 15 16 18 17 18 18 19 20 20 20 19 20 21 21 22 22 22 22 23 23 23 23 23 22 22 22 22 23 23 23 22 22 22 22 22 22 21 22 21 22
10 11 10 9 10 10 10 12 15 17 17 17 18 19 19 20 21 22 21 21 22 22 22 23 24 24 25 25 24 25 25 25 23 23 24 24 23 24 24 24 23 23 23 23 22 22 21 22 22
8 10 11 10 10 11 12 13 15 16 16 17 20 20 20 21 22 23 23 22 23 23 23 24 24 24 26 26 25 27 26 26 25 25 25 25 25 24 25 25 25 25 24 24 23 22 22 22 22
9 10 10 11 11 12 13 13 16 16 17 18 20 22 22 22 23 23 24 24 24 24 24 25 25 26 26 26 26 27 26 26 27 26 26 27 27 26 26 26 25 25 26 25 23 23 23 23 23
8 9 9 10 11 13 15 15 17 18 19 21 22 23 23 23 24 24 24 25 25 25 26 26 27 26 26 25 26 27 26 27 27 27 27 27 27 27 27 26 26 26 26 25 24 24 23 23 23
7 9 10 10 12 14 16 17 19 20 21 21 22 23 24 25 25 25 25 26 26 26 27 27 27 27 27 27 26 27 27 27 27 28 27 26 27 28 27 27 25 25 25 25 24 24 23 23 23
6 8 8 11 13 14 16 18 21 22 21 22 23 24 24 25 26 26 26 26 27 27 27 27 28 28 28 28 28 28 27 28 27 27 27 27 26 26 26 25 24 24 25 25 24 23 23 23 23
8 9 10 11 13 16 18 18 21 22 23 25 24 24 25 25 26 26 27 27 28 28 28 28 28 29 29 29 29 29 29 28 27 27 26 26 26 26 24 24 24 24 24 24 24 24 23 23 23
11 11 11 13 15 18 19 19 20 23 24 24 24 25 26 26 26 26 27 27 28 28 29 29 29 30 30 30 30 30 29 28 27 26 25 26 26 26 25 25 24 24 24 24 24 24 24 24 24
11 11 12 15 17 18 19 19 21 22 25 27 27 27 27 27 27 27 27 27 28 28 29 29 29 29 30 31 31 31 30 28 27 26 26 25 25 25 25 26 25 24 23 23 24 24 24 25 24
11 12 13 17 18 17 18 20 21 23 25 26 26 27 28 28 28 28 28 28 28 29 29 29 29 30 31 31 31 30 29 28 28 27 27 26 25 26 26 26 24 22 22 22 24 24 24 25 25
12 13 14 17 17 16 16 18 21 25 25 26 26 26 27 28 29 30 30 29 29 29 29 29 29 30 31 31 30 30 29 28 28 27 26 26 26 26 26 25 24 23 22 22 23 24 24 25 26
13 12 13 15 16 16 15 16 21 25 25 26 28 27 28 29 31 32 31 31 30 29 30 30 29 29 30 30 30 30 29 28 27 26 26 26 25 26 25 24 23 23 23 23 23 24 25 25 25
14 13 11 14 15 16 17 18 21 25 26 28 28 29 30 31 32 32 32 31 31 30 30 30 30 30 30 30 29 29 28 27 26 25 25 25 25 25 24 24 24 24 24 24 24 24 24 24 25
14 13 13 14 15 17 19 21 23 25 26 27 29 31 31 32 32 32 32 30 31 31 31 30 30 30 30 29 28 28 28 27 26 25 25 24 24 24 24 24 24 23 23 23 23 23 23 24 24
15 15 15 17 17 19 19 19 21 24 27 28 30 31 31 32 32 33 33 32 31 31 31 30 29 29 28 28 28 28 28 26 25 24 24 23 23 23 22 23 22 22 22 22 22 23 23 23 24
15 14 15 16 17 18 18 21 23 24 27 29 31 31 31 32 33 34 33 32 31 31 31 30 29 28 27 27 26 26 25 24 24 23 23 23 23 22 22 22 22 22 21 21 22 23 23 23 24
15 15 15 15 17 18 19 19 24 26 27 30 32 33 32 33 33 33 33 33 31 31 30 29 28 27 27 26 25 24 23 23 23 23 22 22 22 22 21 21 21 21 21 20 21 22 22 23 23
15 15 16 16 17 19 20 21 24 26 30 31 32 33 33 34 35 33 32 32 31 30 29 28 28 27 25 24 23 23 22 22 23 23 22 21 21 21 20 20 20 21 20 20 21 22 22 21 21
16 16 16 18 18 18 20 22 25 28 29 30 31 32 33 33 33 32 31 30 29 29 29 28 27 27 25 24 23 22 22 22 22 22 21 21 20 20 20 20 20 20 20 21 21 22 21 21 21

GEFSSGP_500_meanwind_210.txt.gz
Wind_Speed
9 8 7 5 3 2 2 2 3 3 4 5 7 9 10 11 11 11 11 11 11 12 11 11 10 10 10 11 11 11 12 12 12 12 13 13 13 13 14 13 13 13 13 13 12 13 13 13 13
8 7 6 4 3 2 1 1 2 4 6 8 9 10 11 12 12 11 12 12 12 13 12 11 11 12 12 12 12 12 12 12 12 13 13 13 14 14 14 14 13 14 14 13 13 14 14 14 14
8 7 6 4 2 1 2 2 3 5 7 9 11 12 13 13 13 12 12 13 13 13 13 12 12 12 12 12 12 13 13 13 13 13 14 14 14 14 15 14 14 14 14 14 14 14 15 15 15
8 7 6 4 1 2 4 4 6 6 9 10 12 13 13 14 14 13 13 14 14 15 15 14 13 13 13 14 14 14 14 14 14 14 14 15 15 15 15 15 15 15 14 14 15 15 16 16 16
7 6 5 4 2 2 4 5 7 9 10 11 12 14 14 15 15 14 14 15 16 16 16 15 14 14 15 15 15 15 15 15 15 15 15 15 15 16 16 16 16 16 15 15 16 16 16 17 17
7 6 6 5 3 4 6 7 8 9 11 13 14 16 16 16 16 16 16 17 17 17 16 16 15 15 15 15 15 15 15 16 16 16 16 16 16 17 17 17 17 17 17 16 17 17 17 18 18
7 6 5 4 4 4 6 9 9 10 12 13 15 16 17 17 17 17 18 17 17 17 17 17 16 16 16 16 16 16 16 16 16 17 17 17 17 18 18 18 17 18 18 17 17 18 18 18 18
7 6 4 4 4 6 9 11 12 12 13 13 14 15 16 16 17 18 19 19 18 18 17 17 17 17 17 17 17 17 17 17 17 18 18 18 18 18 19 18 18 18 18 18 18 18 18 18 18
7 7 6 4 6 8 10 12 13 13 13 13 14 15 16 17 17 18 19 19 19 18 18 17 17 18 18 19 18 18 19 18 19 19 18 19 20 20 20 19 19 18 18 18 19 19 19 19 19
8 7 6 6 8 9 10 12 14 14 14 14 15 16 17 17 19 18 18 20 20 19 18 19 19 19 19 20 20 20 20 21 21 20 20 20 21 21 21 21 20 19 19 19 20 20 20 19 19
8 7 6 7 9 9 11 13 15 15 14 15 16 16 18 18 19 19 19 20 20 20 19 20 19 19 20 21 20 20 21 22 22 22 21 21 21 22 22 22 21 21 21 21 21 21 21 20 20
8 7 6 7 9 10 11 12 13 14 15 16 17 17 18 19 19 19 19 20 21 21 20 20 20 21 21 21 21 21 22 22 22 23 23 22 22 22 23 23 23 23 23 22 22 22 22 21 21
7 7 7 7 8 9 9 11 12 14 16 17 18 18 18 20 20 20 21 22 22 20 20 20 21 22 22 22 21 21 22 23 23 23 24 23 23 24 24 24 24 23 23 23 23 22 22 22 22
6 7 6 5 6 9 11 11 13 15 17 19 20 19 20 21 22 23 23 22 21 20 21 21 22 22 23 23 23 23 23 24 24 24 24 24 24 25 25 25 25 24 23 23 22 22 21 21 22
6 6 6 6 7 11 13 13 14 16 17 19 20 21 21 22 23 23 23 22 22 22 22 22 23 24 24 24 24 24 24 25 24 24 25 25 26 25 25 25 25 24 24 24 24 23 22 21 21
6 6 6 7 8 10 13 13 14 17 18 20 22 23 23 23 23 23 22 22 22 23 23 23 24 25 25 25 25 24 24 24 23 24 25 26 26 25 26 26 24 24 24 24 24 23 22 21 21
6 8 8 7 9 11 14 16 17 19 20 21 23 24 24 23 23 23 23 23 23 24 24 23 24 25 25 25 25 25 25 25 25 26 25 25 25 25 26 24 24 24 24 23 23 22 21 21 21
7 9 9 10 10 12 14 17 19 21 22 22 23 23 24 24 24 24 24 24 24 24 23 24 25 26 26 27 26 26 26 26 27 26 25 25 26 26 25 24 23 23 23 22 22 22 22 22 21
9 12 11 11 11 14 15 16 18 20 21 22 23 22 23 25 25 26 25 25 25 25 25 25 25 26 26 27 27 27 27 27 27 27 26 25 25 23 23 23 22 22 23 22 21 21 22 22 22
11 13 12 11 12 14 15 15 16 18 19 21 22 23 24 25 26 27 26 25 26 26 27 26 26 26 27 27 27 28 28 28 27 27 26 25 24 23 23 23 22 22 22 22 21 22 22 22 22
11 13 13 12 11 13 15 16 17 19 20 21 23 22 22 24 26 27 28 28 27 27 28 28 28 28 28 29 29 29 28 27 26 26 26 25 23 23 22 22 22 23 22 22 22 22 22 22 22
10 11 12 12 12 13 16 18 18 20 22 23 23 22 23 25 27 28 29 30 29 28 29 29 30 30 30 29 29 28 27 27 26 25 25 25 24 23 23 23 22 22 21 21 22 22 22 21 21
11 11 12 12 13 14 15 18 19 22 23 23 24 25 25 26 28 29 30 30 30 30 31 31 31 31 30 29 29 28 27 26 26 26 25 24 24 23 23 23 22 22 22 22 21 21 20 21 21
12 12 12 12 12 13 15 18 20 21 22 22 25 25 26 27 27 29 30 31 32 32 33 32 31 30 30 29 28 27 26 25 25 24 24 23 23 23 23 21 21 21 21 20 20 20 21 21 21
13 13 12 11 12 14 16 18 19 20 21 22 23 24 26 27 27 28 30 31 32 32 32 31 31 30 30 29 28 27 26 25 24 23 23 23 23 21 21 21 21 20 20 20 20 20 20 20 21
12 13 14 15 15 16 17 19 19 20 22 22 23 25 26 28 29 30 31 31 31 31 31 31 30 30 30 29 27 26 25 25 23 22 22 21 21 21 20 20 20 20 19 19 20 20 20 21 21
13 14 15 16 17 17 18 19 20 21 23 24 25 26 27 29 30 30 30 30 30 31 31 30 29 30 29 28 26 25 24 22 20 19 19 19 20 20 19 19 19 19 19 19 20 19 20 20 21
14 15 15 16 18 18 18 20 22 22 24 25 26 27 28 29 30 30 30 29 29 30 30 30 29 29 28 27 25 23 22 20 20 18 17 17 17 19 19 17 18 18 18 19 19 18 18 19 20
14 15 16 17 18 20 21 22 24 24 25 26 26 28 29 30 30 30 30 29 29 30 29 28 28 27 27 26 23 21 20 19 19 18 17 17 17 17 17 17 17 17 17 18 18 18 18 19 20
15 16 17 18 19 20 22 24 25 25 26 27 27 29 29 30 30 30 30 29 30 30 28 27 26 26 25 24 23 20 19 18 18 17 17 16 16 15 16 16 17 17 16 16 17 17 17 18 19

GEFSSGP_500_meanwind_216.txt.gz
Wind_Speed
4 3 3 2 1 1 1 2 2 3 4 5 6 7 9 10 11 12 12 12 12 12 12 12 12 11 11 11 10 11 11 11 11 11 10 10 10 10 10 10 11 11 11 11 11 11 11 11 11
4 3 2 1 1 1 2 2 2 2 3 5 7 8 9 10 11 13 13 13 13 13 14 13 13 13 12 11 11 11 12 12 12 11 11 11 11 11 11 11 11 12 11 11 12 12 12 12 11
4 3 2 1 1 3 4 4 5 3 4 6 7 9 10 11 12 13 14 14 14 14 15 15 14 13 12 12 12 12 13 13 13 12 12 12 12 12 13 12 12 12 12 12 12 12 12 12 12
6 5 3 2 1 2 4 5 5 5 5 6 8 9 10 12 13 14 14 15 15 15 15 15 14 13 12 12 13 13 14 14 14 14 14 14 14 14 14 14 13 13 13 13 13 13 13 13 13
7 6 4 3 3 3 4 5 6 6 7 8 9 10 12 13 13 14 15 16 16 17 16 16 15 14 13 13 13 13 14 15 15 15 15 15 15 15 15 15 15 15 15 15 15 14 14 14 13
8 7 6 5 5 5 5 6 7 7 8 9 10 11 12 13 14 15 16 16 17 18 17 17 16 15 14 13 13 14 14 15 16 16 16 17 17 16 16 16 16 16 16 16 15 15 15 15 15
9 8 8 7 7 6 6 8 8 8 9 10 11 12 12 12 14 16 17 17 18 19 18 18 17 17 16 15 15 15 15 15 16 16 17 18 18 17 17 17 17 17 17 16 16 15 16 16 16
8 8 8 9 9 8 8 8 9 10 10 10 11 12 12 13 15 16 18 18 18 19 18 18 18 17 17 16 16 16 16 16 16 17 17 18 19 18 18 18 18 18 18 17 17 16 16 17 17
8 8 9 9 9 9 9 9 10 10 9 10 11 12 13 14 15 16 18 19 19 20 18 18 18 18 18 18 18 17 17 17 18 18 19 20 20 20 20 19 19 19 19 19 19 18 18 18 17
9 9 9 10 10 10 9 9 10 9 10 11 12 13 14 15 16 17 18 19 19 20 19 18 18 18 18 19 19 19 19 19 19 19 20 20 21 21 21 20 20 20 19 19 19 19 18 18 18
9 9 10 10 11 11 10 9 10 11 11 12 13 15 15 16 18 19 20 20 20 21 20 19 19 19 18 19 19 20 20 20 20 21 21 21 22 22 22 22 22 22 21 21 21 20 20 20 20
10 11 12 12 12 12 11 11 11 12 13 14 14 16 17 18 19 20 20 21 22 22 21 20 20 20 20 20 20 21 21 22 22 22 23 23 23 23 23 23 22 22 23 23 22 22 22 21 21
11 12 13 13 12 13 13 13 13 13 13 14 15 16 18 19 20 20 21 21 22 22 22 21 21 21 22 22 21 22 22 22 22 23 23 24 24 23 23 23 23 23 23 24 24 24 23 22 22
11 12 13 14 14 15 15 13 13 14 14 15 16 17 18 20 21 21 22 22 22 22 22 23 23 22 23 23 22 22 22 22 23 24 24 24 24 24 25 25 25 24 24 25 26 25 25 24 23
11 11 12 15 15 15 14 13 13 14 15 16 17 17 19 21 22 22 21 22 22 22 21 22 22 22 22 22 22 23 23 23 24 24 24 25 26 26 25 25 25 25 25 26 26 26 26 24 24
12 12 12 14 15 15 15 14 14 15 15 17 18 19 20 21 22 22 22 22 22 22 22 22 21 22 22 22 24 24 25 25 25 25 25 25 26 26 25 25 25 25 25 25 25 26 26 25 25
13 13 12 14 15 15 15 15 15 16 17 18 19 20 21 22 23 22 21 22 22 23 23 23 23 24 24 23 24 25 26 26 26 26 26 26 26 25 25 25 24 25 26 26 25 25 25 25 25
14 13 13 14 16 16 16 17 17 17 18 19 19 20 21 22 22 22 22 22 23 23 23 23 24 25 25 24 25 26 26 26 26 26 26 26 25 25 24 24 24 24 25 26 25 25 25 25 25
14 14 14 15 16 17 17 17 17 17 18 18 19 19 21 21 22 23 23 23 23 23 24 24 25 26 27 26 26 27 27 26 25 26 25 25 25 25 24 23 23 23 23 24 24 24 24 23 24
13 13 14 15 16 17 16 17 17 17 18 19 19 20 20 21 22 23 23 23 24 24 24 26 27 27 27 28 28 28 27 26 26 25 25 25 25 25 24 24 24 24 24 23 24 24 23 24 24
13 14 14 15 16 17 17 17 17 18 19 20 20 20 21 22 22 23 24 24 25 25 26 28 29 29 29 29 29 28 27 27 26 25 25 24 25 26 25 25 25 25 24 23 23 23 24 24 23
13 13 13 14 16 17 18 19 19 20 20 21 21 21 21 22 22 23 24 25 26 26 26 28 29 30 31 30 29 28 27 26 25 25 25 25 25 25 25 25 24 23 23 23 23 24 24 24 24
13 13 13 14 15 16 18 20 19 19 20 20 21 21 21 23 24 25 26 26 26 26 27 29 30 31 31 30 29 27 26 26 25 25 24 24 25 25 25 25 24 23 22 21 22 23 24 24 24
12 13 14 14 14 16 18 20 19 19 20 21 21 21 22 24 25 25 26 27 27 27 28 29 30 30 30 29 27 26 25 24 24 24 23 23 23 24 23 24 23 22 22 21 22 23 23 24 24
12 13 14 15 16 16 18 19 18 19 20 21 22 22 23 25 26 26 26 27 28 28 29 29 30 30 29 27 26 25 25 24 24 24 24 23 22 21 22 22 22 21 21 21 21 22 22 22 23
12 13 15 16 17 17 17 18 19 20 22 23 24 24 25 26 27 27 28 28 29 29 29 30 29 29 27 26 25 24 24 23 22 23 23 21 21 21 21 22 22 22 21 20 21 22 22 22 22
14 15 16 17 18 19 19 19 20 22 23 24 26 26 26 27 27 27 28 28 29 29 29 29 29 28 27 25 24 23 23 23 23 23 22 21 21 21 20 20 21 22 21 21 21 22 23 22 21
16 16 17 18 20 21 21 21 22 23 24 26 26 26 27 27 28 26 27 27 28 28 28 28 28 27 26 25 25 24 23 23 23 22 21 20 21 21 20 19 20 20 21 21 21 21 22 23 22
17 17 18 19 20 21 23 23 24 25 25 26 26 27 27 28 27 25 26 26 27 27 28 27 27 26 25 25 24 24 23 23 22 20 20 20 19 19 19 18 19 20 20 20 20 20 21 21 21
17 18 19 20 20 21 24 24 25 26 26 25 25 25 26 26 25 24 24 25 25 26 27 26 25 25 25 25 24 23 23 22 21 20 19 19 19 19 18 17 18 18 19 19 19 19 19 20 20

GEFSSGP_500_meanwind_222.txt.gz
Wind_Speed
3 3 3 3 3 2 1 2 3 3 3 4 4 4 5 5 6 7 8 8 9 9 8 7 8 8 7 7 7 7 6 6 6 6 6 6 5 5 5 5 5 5 6 6 6 7 7 6 6
3 3 2 2 3 1 3 3 3 3 4 5 5 6 6 6 7 8 8 9 9 10 9 9 8 8 8 8 8 8 8 7 7 7 7 7 6 6 6 6 6 7 7 7 7 8 8 8 7
3 2 1 1 2 2 3 4 5 5 6 6 6 6 7 7 7 9 10 10 11 11 10 10 10 10 10 10 10 9 9 8 8 8 8 8 8 7 7 8 8 8 8 9 9 9 9 9 9
4 2 1 0 2 4 4 5 6 6 7 6 6 7 7 8 8 9 10 11 11 12 13 12 12 12 11 11 12 11 11 10 10 10 9 9 9 8 9 9 9 9 9 9 10 9 9 9 9
4 2 1 3 5 5 6 6 6 7 7 6 6 7 7 8 9 11 12 12 13 14 14 14 13 13 13 13 12 12 11 11 11 11 11 10 10 10 10 11 11 11 10 10 10 10 10 9 9
4 3 3 5 6 7 8 7 7 7 7 7 7 8 8 9 11 12 13 14 15 15 16 15 15 14 14 14 13 12 12 12 12 12 12 12 12 12 12 13 13 12 12 12 11 11 11 11 11
5 4 6 7 8 8 9 9 9 9 9 8 8 9 10 10 12 13 14 15 16 16 17 16 17 16 15 15 14 14 13 13 13 13 13 14 14 14 15 15 14 14 13 13 13 13 13 13 13
6 5 6 8 8 9 9 10 10 11 11 11 10 11 11 12 12 13 15 16 16 17 18 18 17 17 16 15 15 15 15 15 14 14 15 15 16 16 17 16 16 16 15 15 15 15 15 14 14
6 5 7 9 9 10 10 11 12 11 11 11 11 12 12 12 13 14 16 16 17 18 18 19 18 17 17 16 16 16 16 16 16 16 16 16 17 18 18 18 18 18 17 17 17 16 16 16 16
7 7 9 10 10 11 11 12 12 12 12 13 13 13 13 13 14 15 16 16 18 19 19 19 18 18 19 18 17 17 17 17 17 17 18 18 18 19 19 18 19 19 19 19 19 18 17 17 17
9 9 10 11 11 12 12 11 12 13 13 14 14 14 14 14 15 16 17 18 19 19 19 19 19 19 19 18 17 16 18 19 19 19 19 19 20 19 19 19 19 20 20 21 20 21 20 19 18
9 10 10 11 11 12 12 12 12 13 14 15 15 15 15 15 15 17 18 19 19 19 19 19 19 18 18 18 17 18 19 20 20 20 20 21 21 20 20 20 20 21 21 21 22 22 21 20 19
11 11 11 11 12 12 12 12 13 13 13 14 15 15 15 15 16 18 19 20 20 20 19 19 18 17 18 19 19 19 20 21 21 21 20 20 21 21 22 21 20 20 21 21 22 22 22 22 21
12 12 11 12 13 13 13 13 13 13 13 14 15 15 16 17 18 19 19 20 20 20 20 19 18 18 19 19 20 20 22 22 22 23 23 22 22 22 21 21 21 21 22 22 22 23 22 23 23
11 11 13 13 14 14 14 14 15 15 15 16 16 16 17 18 19 20 21 20 20 20 20 20 19 19 19 20 21 22 23 23 24 24 24 24 23 23 23 22 22 22 22 23 23 23 22 22 23
12 12 12 15 15 16 15 15 16 17 17 17 17 18 18 19 19 20 21 21 21 21 21 20 20 20 20 20 22 23 23 23 24 24 23 24 24 24 23 23 22 22 22 22 22 23 22 23 23
12 12 13 15 16 16 16 16 16 17 16 17 17 17 18 19 19 20 21 22 22 22 21 21 21 20 21 22 23 24 24 24 24 24 24 25 25 25 25 24 23 23 23 23 23 23 23 23 23
14 13 14 14 15 15 16 16 16 16 16 17 17 18 19 19 20 20 21 21 22 22 21 22 22 22 22 23 24 25 25 25 25 25 25 26 25 25 25 24 24 24 23 23 23 24 23 23 23
14 14 13 14 16 15 15 16 16 16 16 17 18 19 19 20 20 21 22 22 22 22 21 22 22 23 23 24 25 25 24 24 24 25 25 25 25 24 24 24 24 24 24 23 23 24 24 23 23
15 14 14 16 16 15 15 15 16 16 16 18 19 20 20 20 21 22 23 23 22 21 21 22 23 24 24 25 25 25 24 24 25 25 25 25 24 24 24 24 24 23 23 23 23 24 24 23 23
14 15 15 15 15 15 15 15 15 16 17 18 19 20 21 21 21 22 22 22 21 22 23 23 24 24 24 25 25 25 25 25 24 24 24 24 24 23 24 24 24 24 24 24 24 23 24 24 24
13 14 15 15 15 14 15 15 16 17 18 19 19 20 21 22 22 22 22 22 23 24 24 24 24 24 24 24 24 24 25 24 24 24 23 23 24 23 23 24 24 24 24 24 23 23 23 24 24
12 13 14 14 14 14 14 14 16 18 18 19 20 20 21 22 22 21 21 22 24 24 25 25 25 25 25 25 24 24 24 24 24 24 23 22 22 21 22 22 23 24 24 24 22 22 22 22 23
12 12 12 12 12 13 14 15 16 18 19 20 20 20 21 22 22 22 22 23 24 24 25 26 26 26 25 24 24 25 24 24 24 24 23 22 21 21 22 22 22 23 24 24 23 22 23 22 22
12 11 11 11 12 14 16 16 17 18 19 19 19 20 21 23 23 23 23 23 23 24 25 26 26 25 24 25 24 24 24 24 24 23 23 22 21 22 22 21 21 22 23 23 23 22 23 23 23
12 11 11 12 12 13 16 17 18 19 19 19 20 21 22 23 23 24 23 23 24 24 24 25 25 24 24 24 24 24 24 23 23 23 22 22 21 21 21 21 21 21 22 22 22 23 23 24 24
12 12 12 13 13 14 15 18 18 19 20 21 21 22 23 24 23 23 23 24 25 24 24 24 25 23 23 23 23 23 23 22 22 21 21 21 21 21 21 21 21 20 21 21 22 23 24 24 24
12 13 13 13 14 15 15 17 18 20 21 21 22 23 24 24 24 24 24 25 25 25 26 25 24 23 23 23 23 23 23 22 22 21 21 21 21 21 22 22 21 21 20 21 22 22 22 22 22
14 14 14 14 15 15 16 17 18 21 22 23 23 24 25 25 24 24 25 25 25 26 25 25 24 24 23 23 23 23 22 22 21 22 22 22 22 22 22 21 21 22 22 21 22 22 22 22 23
15 15 15 15 16 17 17 19 20 22 23 23 24 24 24 24 24 24 24 25 26 26 25 25 25 24 24 24 23 22 22 21 21 21 21 21 21 21 21 21 21 21 21 21 21 21 22 22 22

GEFSSGP_500_meanwind_228.txt.gz
Wind_Speed
5 7 8 7 7 8 4 0 4 7 8 8 9 8 8 9 10 11 11 10 10 10 11 10 10 10 10 10 10 10 10 10 10 8 8 8 8 8 8 7 7 7 8 8 8 8 9 8 8
6 6 5 5 6 4 1 4 7 10 11 11 10 9 10 10 10 11 11 11 11 11 12 12 11 11 11 11 11 11 11 11 10 10 10 10 9 9 9 9 8 8 9 9 9 9 10 10 10
5 4 4 5 5 2 3 8 10 12 12 11 11 10 11 11 12 12 12 13 13 13 13 12 12 12 12 12 12 12 12 12 12 12 12 11 11 11 10 10 10 10 10 10 10 10 10 10 10
4 4 5 5 5 3 6 8 12 12 13 13 13 13 13 13 13 13 13 14 14 13 13 13 13 13 13 13 13 13 13 13 13 13 12 12 12 12 12 12 12 12 11 11 11 11 10 10 11
4 4 4 3 2 6 9 10 11 13 13 14 15 15 13 13 13 14 14 14 14 12 12 13 14 14 14 14 15 14 14 14 13 13 13 13 13 13 13 13 13 13 13 12 12 11 11 11 11
4 4 3 1 4 8 11 12 12 12 14 13 14 15 14 15 15 15 14 15 14 12 13 14 15 16 16 16 15 15 15 14 14 14 13 14 14 14 14 14 14 14 14 13 13 13 13 12 12
4 3 2 2 4 10 12 14 13 13 15 14 14 15 15 17 16 15 15 15 14 14 14 16 16 16 16 16 16 16 16 16 15 15 14 14 14 14 15 16 15 15 15 14 14 14 14 14 14
4 2 2 4 6 10 13 14 14 14 15 14 15 15 16 17 17 17 16 16 16 16 16 18 17 17 16 16 17 17 18 17 16 16 16 16 15 15 16 16 17 17 16 16 16 16 16 15 15
3 2 4 5 7 10 13 13 14 15 15 15 15 16 17 18 17 17 17 18 18 18 18 18 18 17 18 18 18 18 18 18 17 17 18 17 17 16 17 17 17 17 17 17 17 17 17 17 17
4 5 5 8 10 10 11 13 14 15 14 16 16 17 18 19 19 18 19 19 19 19 19 19 19 18 19 20 20 19 19 18 18 18 18 18 18 17 17 18 18 18 18 18 18 18 18 18 19
8 10 9 9 11 11 12 13 14 15 16 16 16 17 19 18 19 19 19 19 20 20 20 20 20 20 21 20 20 19 19 20 19 19 19 18 19 19 19 19 19 20 20 20 20 20 19 20 20
10 12 13 11 12 12 12 14 15 16 16 16 17 17 18 19 19 19 20 20 21 21 21 21 21 20 21 21 20 20 20 20 19 19 19 19 20 20 20 20 20 21 21 20 20 20 20 20 21
10 12 13 14 14 13 13 14 15 16 16 18 19 19 19 19 19 18 19 20 20 21 21 21 21 21 21 21 21 21 20 20 20 21 21 21 20 20 20 20 20 20 20 20 19 19 19 20 21
10 11 12 13 13 15 16 16 15 17 17 18 19 20 20 20 20 20 19 19 20 21 21 21 21 21 21 21 21 21 21 21 20 21 20 19 18 19 19 20 20 20 20 19 19 19 19 19 20
9 10 11 12 14 16 18 17 18 18 19 19 20 21 20 20 20 20 20 20 21 21 21 21 21 21 21 22 22 21 22 22 21 20 19 19 19 19 20 20 20 20 20 19 19 20 20 19 20
9 11 12 14 16 17 19 18 20 19 19 19 20 22 21 21 21 21 21 21 21 21 21 21 21 22 22 23 23 23 22 21 21 21 21 21 20 20 20 21 21 21 20 20 20 21 21 21 20
11 13 12 14 18 18 18 18 21 20 17 19 21 22 22 22 22 21 21 21 21 21 21 21 22 22 23 23 22 22 21 20 21 21 21 22 21 21 21 22 21 21 20 20 21 21 21 23 22
13 13 13 14 18 18 19 18 21 20 19 19 21 22 22 22 22 21 22 22 22 22 21 21 21 22 22 23 22 21 21 21 22 22 22 22 22 22 22 22 22 22 21 21 22 22 22 23 23
14 14 13 14 17 17 19 18 19 22 20 19 21 21 21 22 22 22 22 23 22 22 22 22 22 23 23 23 23 23 23 23 23 23 23 23 23 23 23 23 23 23 22 22 23 23 23 23 24
13 14 13 14 16 19 18 18 19 21 21 20 20 21 21 22 23 23 23 24 23 23 23 23 23 23 23 24 24 24 25 25 25 25 24 24 24 23 24 24 24 24 23 22 22 22 22 22 24
13 14 13 13 15 16 17 19 20 21 21 21 20 21 22 23 24 24 24 24 24 24 24 24 24 24 25 25 25 26 26 26 26 25 25 25 25 24 24 24 24 24 23 23 23 23 22 22 22
14 14 14 14 15 14 15 19 20 21 21 21 21 22 22 24 25 25 25 25 24 24 24 25 25 25 26 26 26 26 26 25 25 24 24 25 25 25 25 25 25 25 24 24 24 24 23 23 22
13 14 14 13 14 15 16 18 19 21 21 22 23 22 23 24 25 26 25 24 25 25 26 26 26 26 26 26 25 25 25 24 24 23 24 24 25 25 25 25 25 25 24 24 24 24 24 23 23
11 12 11 11 14 17 17 17 19 22 21 23 24 24 23 24 26 26 25 25 25 26 26 26 26 26 25 25 24 24 24 24 23 23 23 24 25 25 25 24 24 24 24 24 25 25 24 24 24
12 10 11 12 15 17 17 20 22 21 22 24 24 24 23 24 26 26 26 26 25 26 25 25 25 26 26 25 25 25 24 24 24 24 24 24 24 24 24 24 24 24 25 25 25 25 25 25 25
13 12 12 14 14 16 17 20 22 23 21 22 23 24 24 25 26 27 26 26 25 25 25 26 26 26 26 25 25 24 23 23 24 24 24 24 24 24 23 24 24 25 25 26 25 25 25 25 25
12 12 13 15 14 16 18 19 21 21 21 21 21 23 25 26 27 26 26 26 26 25 26 27 27 27 26 25 25 24 23 23 23 23 24 24 24 23 24 24 24 25 25 26 25 25 25 25 25
13 14 14 15 16 16 16 19 21 21 21 21 22 24 25 26 27 26 26 26 27 27 27 27 27 26 26 25 25 24 24 23 23 23 24 23 23 23 23 24 25 25 25 25 25 26 26 25 25
14 14 15 16 16 17 17 19 20 20 20 22 22 24 26 26 26 26 27 27 28 28 28 27 25 25 25 25 25 25 24 24 23 24 23 23 23 24 24 24 25 24 24 24 25 25 25 25 24
15 15 15 16 16 16 18 20 21 22 22 23 22 23 24 25 25 26 26 27 27 27 27 26 26 25 25 25 25 25 24 24 23 23 23 23 24 24 25 25 24 24 23 24 24 24 24 24 24

GEFSSGP_500_meanwind_234.txt.gz
Wind_Speed
7 7 7 6 4 4 1 2 5 5 7 8 10 12 13 12 12 11 10 11 11 10 9 9 9 9 9 8 9 9 10 10 11 11 11 11 11 11 11 10 10 10 10 10 9 10 10 10 10
7 7 7 6 4 3 2 3 5 7 8 9 11 12 12 12 12 12 11 11 11 11 11 10 10 10 9 9 9 9 10 11 11 11 12 12 12 12 11 11 11 11 10 11 11 11 11 11 11
6 6 6 6 3 2 2 3 5 9 10 11 13 13 13 13 13 12 13 13 13 12 12 10 10 10 9 9 9 10 10 11 11 11 12 13 12 12 12 12 12 11 11 11 11 11 11 12 12
5 6 6 5 3 1 2 4 6 10 12 13 15 15 14 13 13 13 13 13 12 12 12 11 10 10 10 10 11 11 11 11 12 12 12 13 12 12 12 11 12 12 12 12 12 12 12 12 12
4 4 4 4 2 2 2 4 7 10 13 14 14 15 14 14 14 14 13 12 13 13 12 12 11 11 11 11 12 12 12 12 12 12 12 13 12 13 12 12 12 13 13 13 13 13 13 13 13
4 4 3 3 2 2 4 5 8 10 12 14 15 14 15 14 15 14 14 14 14 13 12 11 12 12 12 13 13 14 13 13 13 13 14 14 14 14 13 13 13 13 14 14 14 14 14 14 14
5 5 3 3 2 4 5 8 10 12 14 15 15 15 15 16 16 15 14 14 13 13 12 11 12 13 13 13 14 14 14 15 15 14 15 16 16 15 14 14 14 14 14 14 14 15 15 15 15
7 5 3 2 3 5 7 10 12 13 15 16 17 15 16 17 16 15 14 14 13 13 12 11 12 13 13 14 15 15 14 15 15 15 16 16 17 16 15 15 15 15 15 16 16 16 16 16 16
7 6 4 3 4 7 9 10 11 13 15 16 17 16 16 17 16 15 15 14 14 13 12 12 13 14 14 14 15 15 15 15 15 15 16 16 15 15 15 15 16 16 17 17 17 18 17 17 17
8 5 4 3 5 8 10 11 12 13 15 16 16 15 16 17 16 15 15 14 13 13 12 13 14 15 15 16 16 16 16 16 16 16 16 15 15 15 16 16 16 17 17 17 18 18 18 18 18
9 6 5 5 6 9 10 12 14 14 15 15 16 16 16 17 17 16 14 14 14 14 14 14 15 16 16 16 16 17 17 15 15 15 15 15 15 15 16 16 16 16 17 17 18 18 19 19 19
10 7 7 7 8 9 10 13 14 15 15 16 16 16 16 17 16 15 14 14 15 15 16 15 17 17 17 17 17 18 17 16 15 16 16 16 16 16 16 16 16 15 16 16 16 18 18 19 20
12 10 9 10 11 10 10 12 14 15 16 17 17 16 16 15 15 15 14 14 15 16 16 16 17 17 17 18 18 17 17 16 16 16 16 16 16 16 16 16 16 16 16 17 17 17 18 18 19
11 11 10 9 10 10 11 12 15 16 17 17 17 15 15 15 15 15 15 16 16 17 17 17 16 17 18 19 18 17 16 16 15 15 16 16 15 15 16 16 17 17 17 17 17 18 18 18 19
10 9 8 8 10 11 13 14 16 17 17 18 17 17 18 18 17 17 16 16 17 17 17 17 18 18 18 18 18 18 17 17 16 16 16 16 15 15 15 15 16 16 17 17 18 18 18 19 19
10 10 9 9 11 12 15 17 18 19 19 18 18 18 19 18 17 17 17 17 17 17 18 19 19 19 19 19 18 18 18 18 17 16 17 17 16 16 16 16 16 17 17 17 18 18 19 19 20
10 10 10 11 12 14 15 18 19 20 20 18 19 19 20 19 17 17 17 17 18 19 19 20 20 20 20 19 18 18 18 18 18 17 18 18 18 18 18 18 18 18 18 18 18 18 19 19 20
11 11 13 12 12 14 15 17 18 18 20 19 19 19 19 19 17 17 18 18 20 21 21 20 21 21 21 20 20 20 19 19 18 18 19 19 19 19 19 20 20 19 19 19 19 19 19 19 20
13 14 15 14 14 15 16 17 17 18 18 20 21 20 19 19 19 18 18 19 21 22 21 22 22 22 22 21 21 21 20 20 20 21 21 21 21 21 21 21 21 21 20 20 19 19 20 20 20
16 16 16 15 16 16 17 17 17 18 18 19 20 21 20 20 21 20 19 20 21 22 22 22 23 23 22 21 22 21 22 22 22 22 22 22 23 23 23 22 22 22 22 21 21 21 20 20 20
16 16 15 15 15 16 18 17 17 17 18 19 20 19 20 20 20 19 20 22 22 22 22 23 23 23 22 22 22 22 23 23 23 23 23 24 24 23 23 23 23 23 23 22 21 22 21 21 21
15 15 14 14 16 17 17 18 17 17 17 17 19 19 20 20 20 22 22 22 23 23 22 23 23 22 22 23 23 23 22 23 23 23 23 24 24 23 23 23 23 23 24 23 23 23 22 22 22
15 15 15 15 16 17 17 19 17 16 17 17 18 19 19 19 19 21 22 22 23 24 23 24 23 23 23 23 24 24 24 23 22 22 23 23 24 23 23 23 24 24 25 25 24 24 24 24 23
15 15 16 16 17 20 18 19 18 17 17 17 18 19 18 19 20 22 23 23 23 23 24 24 23 23 22 23 24 24 24 23 22 22 23 23 23 23 23 23 24 25 25 24 25 25 25 25 25
16 17 18 17 17 19 18 20 19 17 16 17 18 19 19 19 20 22 23 23 23 24 24 23 23 23 23 23 24 24 24 23 23 23 23 22 22 22 23 24 24 25 25 26 26 25 25 26 25
16 17 17 17 17 17 17 19 18 16 17 17 19 19 19 20 21 22 22 23 23 24 24 22 22 23 23 23 24 24 24 23 22 22 22 22 22 23 23 24 24 25 25 26 26 26 26 26 26
15 16 17 17 17 18 18 18 16 17 18 18 19 19 20 21 21 22 22 23 23 24 24 23 22 23 23 24 24 23 22 21 21 21 21 22 22 23 24 24 24 24 25 26 26 26 26 26 26
15 15 15 17 18 19 18 17 16 17 18 19 20 20 21 22 23 23 22 22 23 23 24 24 23 23 24 24 24 23 22 21 21 21 22 22 22 23 23 24 24 24 24 25 25 26 26 26 27
14 15 15 16 17 18 19 18 17 18 19 20 21 21 21 21 22 23 23 22 22 23 24 22 23 24 24 23 23 23 22 21 21 22 22 22 23 23 23 23 24 24 24 24 25 26 27 27 27
15 15 16 17 18 19 20 20 19 19 19 20 20 20 22 22 22 23 23 23 23 23 23 23 24 24 24 24 23 23 22 22 22 22 22 22 22 23 23 23 23 24 25 24 24 25 25 26 26

GEFSSGP_500_meanwind_240.txt.gz
Wind_Speed
5 4 4 3 2 1 1 3 5 6 7 8 10 11 11 11 11 11 11 11 10 10 10 9 9 9 8 8 8 8 8 8 8 8 8 8 8 8 9 8 8 8 8 8 7 7 7 7 6
6 4 4 4 3 3 3 3 5 6 8 9 9 10 11 11 11 11 11 11 11 10 10 10 10 9 8 8 9 9 9 9 8 8 8 8 9 9 10 9 9 9 9 9 8 8 7 7 7
6 6 5 5 5 4 5 5 6 7 8 9 9 10 11 11 11 11 11 11 11 11 10 10 10 10 9 8 9 9 10 10 10 10 10 10 10 10 10 10 10 10 10 10 9 9 8 8 8
7 7 6 5 5 5 5 6 6 7 8 9 10 11 11 11 11 12 11 11 11 11 11 10 10 10 10 10 10 10 11 11 12 12 12 11 11 11 11 11 12 11 11 11 11 9 9 9 9
8 8 6 6 5 4 4 5 6 7 7 8 10 12 13 13 13 13 12 12 12 11 11 11 10 10 10 10 10 11 12 12 13 13 13 13 13 12 12 12 13 13 12 12 12 11 10 10 10
9 8 8 7 6 5 4 4 5 6 7 9 10 11 13 14 14 14 14 13 13 12 12 12 12 11 11 11 11 12 13 13 14 13 13 14 14 13 13 13 13 14 13 13 13 12 12 12 12
9 9 10 9 7 6 5 5 5 6 8 10 11 12 14 14 15 15 15 14 13 13 13 13 13 12 11 11 12 12 13 14 14 15 14 14 15 14 14 14 14 14 14 14 14 14 13 13 13
10 9 9 9 7 6 6 5 5 7 9 10 11 12 13 15 15 16 15 14 13 13 13 13 13 12 12 11 12 13 14 14 15 15 15 15 15 15 15 15 14 15 15 15 15 14 14 14 14
10 10 8 8 6 6 7 7 7 8 9 10 11 13 14 15 16 15 15 15 14 14 13 12 12 13 12 11 12 13 14 14 15 15 16 16 16 16 16 15 15 15 15 15 15 14 14 14 14
10 10 9 9 8 8 8 8 8 9 9 10 12 13 15 16 16 16 16 16 15 14 13 13 13 13 13 12 13 13 14 14 16 16 17 16 16 16 15 15 16 15 15 15 15 15 14 15 15
10 10 9 9 9 9 9 8 9 9 10 11 13 14 15 17 17 17 16 16 15 14 14 13 13 13 13 13 13 13 14 15 16 16 16 16 17 17 17 16 16 16 16 16 15 15 15 15 15
11 10 10 10 10 11 10 9 9 9 11 12 14 15 15 15 17 17 15 14 14 14 14 14 13 13 13 13 13 14 15 15 16 16 16 16 17 17 16 16 15 16 16 16 16 16 15 15 15
12 11 10 10 11 12 11 11 10 10 11 13 15 15 16 15 16 16 14 14 14 14 15 15 15 14 14 14 14 15 16 16 16 16 15 16 16 16 15 14 15 16 16 16 16 16 16 16 16
13 12 11 11 11 12 12 12 12 12 13 14 14 15 16 15 15 16 15 15 15 15 15 15 15 14 14 15 15 16 16 17 16 16 16 16 16 16 16 16 16 16 16 17 17 17 17 17 18
15 14 13 12 12 13 13 12 13 13 14 15 15 15 15 15 16 16 15 15 15 15 15 15 14 15 15 16 16 17 17 17 17 17 17 17 17 17 17 17 16 16 17 17 18 18 19 19 19
16 15 13 12 14 15 15 14 14 14 15 15 15 14 15 15 16 15 15 15 16 16 16 16 16 16 16 16 16 17 18 18 18 18 18 18 17 18 18 17 17 17 17 18 18 19 20 20 20
17 16 14 14 15 15 15 15 14 15 15 14 15 15 15 15 16 17 16 17 17 18 18 18 18 17 17 18 19 19 20 19 19 19 19 18 19 19 18 18 18 18 19 19 19 20 21 21 21
16 16 15 14 16 17 16 16 16 16 16 16 15 15 15 16 17 17 17 18 19 20 20 20 18 18 20 20 20 20 20 19 19 20 19 19 19 19 19 19 19 19 20 20 21 22 22 22 22
16 16 15 15 17 18 17 17 17 17 17 16 16 16 17 18 18 18 18 19 20 21 20 20 20 20 21 20 20 20 19 19 19 20 20 20 20 21 20 21 21 21 21 22 23 23 23 23 22
18 18 17 17 17 19 19 18 18 18 18 18 19 19 19 18 18 19 19 19 20 20 20 21 21 21 21 21 20 19 19 19 20 20 20 20 21 21 22 22 22 22 22 23 23 24 24 23 23
19 18 18 19 19 19 20 19 18 18 19 20 20 20 19 18 19 19 19 19 19 19 20 21 21 22 22 21 21 20 20 20 20 20 20 21 22 22 23 23 23 22 22 23 23 24 24 24 24
17 18 19 20 20 21 21 21 18 19 20 20 20 20 19 19 20 20 20 20 20 20 21 21 22 22 22 21 21 21 20 20 20 21 21 21 22 23 23 24 23 24 24 24 24 24 24 25 25
17 18 19 21 22 22 21 22 20 20 20 20 20 20 20 20 20 19 20 20 20 20 20 21 22 21 21 21 21 21 21 21 21 21 21 21 21 22 22 23 24 24 24 24 25 25 25 25 26
18 19 20 22 23 23 21 23 22 20 21 21 20 19 20 19 20 20 19 19 20 20 21 21 21 22 22 22 22 22 22 22 22 22 22 21 21 21 22 23 24 25 26 26 26 26 25 26 26
18 19 21 23 23 23 22 24 22 21 20 20 20 20 20 20 19 19 19 20 20 21 22 21 22 23 22 22 22 23 23 22 22 22 21 21 21 22 22 23 24 25 26 27 26 27 26 27 27
19 20 22 23 24 23 23 23 21 21 21 20 21 21 21 20 21 21 21 21 21 22 22 22 23 23 23 23 23 24 23 22 22 21 21 21 22 22 23 24 25 25 26 26 26 27 27 27 28
19 20 21 23 24 25 24 22 21 21 21 21 21 22 22 22 22 21 21 21 22 22 23 24 24 24 24 24 23 23 23 23 22 21 22 22 22 23 24 25 25 25 26 26 26 27 28 28 28
19 19 21 22 24 25 24 22 22 21 21 21 21 21 21 22 22 21 21 22 22 23 24 25 26 25 24 24 23 23 24 23 23 23 23 23 23 23 24 24 25 25 25 26 27 27 28 29 29
19 20 21 22 23 24 24 22 21 21 21 21 21 21 21 21 21 21 21 22 22 24 24 24 24 24 24 23 23 24 24 23 23 24 23 24 24 24 25 25 25 25 25 26 26 27 28 29 29
20 20 21 23 23 24 24 22 20 20 21 21 20 20 21 21 21 21 21 22 23 24 24 24 24 25 24 23 23 23 23 23 23 23 24 24 24 24 25 25 25 25 26 25 26 26 27 27 28